DL9BGG-13 Weather Reports


time (UTC)temp
C
wind
direction
speed
KPH
gust
KPH
rain 1hr
cm
rain 24hr
cm
rain mn
cm
humidity
%
barometer
mb
20260902150557 23 292 12.9 0.0 0.00 0.00 0.00 68 1063.0
20260902150437 23 270 9.7 0.0 0.00 0.00 0.00 69 1062.9
20260902150334 22 270 0.0 0.0 0.00 0.00 0.00 71 1063.0
20260902150219 22 247 0.0 0.0 0.00 0.00 0.00 71 1063.0
20260902150104 22 337 0.0 0.0 0.00 0.00 0.00 71 1063.0
20260902145954 22 270 8.0 0.0 0.00 0.00 0.00 72 1063.0
20260902145849 22 292 0.0 0.0 0.00 0.00 0.00 72 1063.0
20260902145736 22 270 8.0 0.0 0.00 0.00 0.00 72 1063.0
20260902145629 21 270 6.4 0.0 0.00 0.00 0.00 71 1063.1
20260902145524 22 315 11.3 0.0 0.00 0.00 0.00 71 1063.0
20260902145404 22 292 6.4 0.0 0.00 0.00 0.00 71 1063.1
20260902145258 22 270 4.8 0.0 0.00 0.00 0.00 71 1063.1
20260902145145 22 292 6.4 0.0 0.00 0.00 0.00 71 1063.1
20260902145033 22 315 8.0 0.0 0.00 0.00 0.00 71 1063.1
20260902144918 22 270 6.4 0.0 0.00 0.00 0.00 70 1063.1
20260902144757 22 270 8.0 0.0 0.00 0.00 0.00 70 1063.1
20260902144644 22 315 11.3 0.0 0.00 0.00 0.00 69 1063.1
20260902144531 22 292 9.7 0.0 0.00 0.00 0.00 69 1063.1
20260902144409 22 247 12.9 0.0 0.00 0.00 0.00 69 1063.1
20260902144257 22 292 11.3 0.0 0.00 0.00 0.00 68 1063.2
20260902144143 22 270 9.7 0.0 0.00 0.00 0.00 68 1063.1
20260902144016 22 270 8.0 0.0 0.00 0.00 0.00 67 1063.1
20260902143909 23 292 8.0 0.0 0.00 0.00 0.00 67 1063.1
20260902143755 23 270 9.7 0.0 0.00 0.00 0.00 67 1063.1
20260902143634 23 315 6.4 0.0 0.00 0.00 0.00 67 1063.1
20260902143514 23 337 8.0 0.0 0.00 0.00 0.00 68 1063.0
20260902143407 23 292 12.9 0.0 0.00 0.00 0.00 68 1063.1
20260902143247 23 270 9.7 0.0 0.00 0.00 0.00 69 1063.0
20260902143117 22 292 9.7 0.0 0.00 0.00 0.00 69 1063.0
20260902142956 22 315 9.7 0.0 0.00 0.00 0.00 69 1063.0
20260902142843 22 270 11.3 0.0 0.00 0.00 0.00 69 1063.1
20260902142723 22 247 8.0 0.0 0.00 0.00 0.00 69 1063.1
20260902142616 22 270 4.8 0.0 0.00 0.00 0.00 71 1062.9
20260902142456 22 292 9.7 0.0 0.00 0.00 0.00 71 1063.0
20260902142351 22 315 14.5 0.0 0.00 0.00 0.00 72 1063.0
20260902142247 22 270 6.4 0.0 0.00 0.00 0.00 72 1063.0
20260902142141 22 292 12.9 0.0 0.00 0.00 0.00 72 1063.0
20260902142036 22 292 6.4 0.0 0.00 0.00 0.00 72 1063.0
20260902141923 22 247 9.7 0.0 0.00 0.00 0.00 72 1062.9
20260902141817 22 270 3.2 0.0 0.00 0.00 0.00 73 1062.9
20260902141705 22 292 3.2 0.0 0.00 0.00 0.00 73 1062.9
20260902141552 22 270 4.8 0.0 0.00 0.00 0.00 72 1062.9
20260902141438 22 270 6.4 0.0 0.00 0.00 0.00 72 1062.8
20260902141319 22 247 8.0 0.0 0.00 0.00 0.00 72 1062.9
20260902141212 22 292 0.0 0.0 0.00 0.00 0.00 71 1062.8
20260902141101 22 270 8.0 0.0 0.00 0.00 0.00 71 1062.9
20260902140954 22 315 3.2 0.0 0.00 0.00 0.00 70 1062.8
20260902140831 22 292 6.4 0.0 0.00 0.00 0.00 71 1062.8
20260902140713 22 270 0.0 0.0 0.00 0.00 0.00 70 1062.8
20260902140558 22 270 14.5 0.0 0.00 0.00 0.00 70 1062.8
20260902140436 22 270 9.7 0.0 0.00 0.00 0.00 70 1062.8
20260902140315 22 270 9.7 0.0 0.00 0.00 0.00 70 1062.9
20260902140146 22 315 6.4 0.0 0.00 0.00 0.00 70 1062.9
20260902140025 22 225 9.7 0.0 0.00 0.00 0.00 69 1062.8
20260902135903 22 292 6.4 0.0 0.00 0.00 0.00 69 1062.9
20260902135751 23 292 9.7 0.0 0.00 0.00 0.00 69 1062.8
20260902135630 22 337 8.0 0.0 0.00 0.00 0.00 69 1062.9
20260902135516 23 247 8.0 0.0 0.00 0.00 0.00 69 1062.8
20260902135404 23 270 0.0 0.0 0.00 0.00 0.00 69 1062.8
20260902135258 23 247 9.7 0.0 0.00 0.00 0.00 69 1062.9
20260902135145 23 292 3.2 0.0 0.00 0.00 0.00 69 1062.8
20260902135033 23 292 4.8 0.0 0.00 0.00 0.00 69 1062.9
20260902134927 22 247 9.7 0.0 0.00 0.00 0.00 70 1062.9
20260902134806 22 270 0.0 0.0 0.00 0.00 0.00 70 1062.9
20260902134701 22 270 3.2 0.0 0.00 0.00 0.00 70 1062.9
20260902134548 22 292 3.2 0.0 0.00 0.00 0.00 70 1062.9
20260902134419 22 315 8.0 0.0 0.00 0.00 0.00 70 1062.9
20260902134314 22 270 3.2 0.0 0.00 0.00 0.00 70 1062.9
20260902134208 22 247 8.0 0.0 0.00 0.00 0.00 70 1062.9
20260902134047 22 292 9.7 0.0 0.00 0.00 0.00 69 1062.9
20260902133925 22 247 6.4 0.0 0.00 0.00 0.00 69 1063.0
20260902133804 22 270 6.4 0.0 0.00 0.00 0.00 69 1062.9
20260902133646 22 202 17.7 0.0 0.00 0.00 0.00 70 1062.9
20260902133538 22 202 9.7 0.0 0.00 0.00 0.00 70 1062.9
20260902133433 22 180 3.2 0.0 0.00 0.00 0.00 70 1063.0
20260902133320 22 292 9.7 0.0 0.00 0.00 0.00 70 1063.0
20260902133200 22 270 9.7 0.0 0.00 0.00 0.00 70 1062.9
20260902133053 22 247 8.0 0.0 0.00 0.00 0.00 71 1063.0
20260902132941 22 247 4.8 0.0 0.00 0.00 0.00 71 1063.0
20260902132828 22 247 6.4 0.0 0.00 0.00 0.00 72 1063.1
20260902132717 22 247 9.7 0.0 0.00 0.00 0.00 72 1063.0
20260902132611 22 292 0.0 0.0 0.00 0.00 0.00 71 1063.0
20260902132507 22 270 0.0 0.0 0.00 0.00 0.00 71 1063.0
20260902132359 22 270 6.4 0.0 0.00 0.00 0.00 71 1063.0
20260902132246 22 270 4.8 0.0 0.00 0.00 0.00 71 1063.0
20260902132134 22 247 8.0 0.0 0.00 0.00 0.00 71 1063.0
20260902132028 22 315 8.0 0.0 0.00 0.00 0.00 71 1063.0
20260902131915 22 270 6.4 0.0 0.00 0.00 0.00 71 1063.0
20260902131802 22 270 8.0 0.0 0.00 0.00 0.00 72 1063.0
20260902131650 22 180 0.0 0.0 0.00 0.00 0.00 72 1063.0
20260902131546 21 270 6.4 0.0 0.00 0.00 0.00 72 1063.0
20260902131439 21 247 6.4 0.0 0.00 0.00 0.00 72 1063.0
20260902131325 21 247 0.0 0.0 0.00 0.00 0.00 72 1063.0
20260902131213 21 247 3.2 0.0 0.00 0.00 0.00 72 1063.0
20260902131100 21 247 3.2 0.0 0.00 0.00 0.00 72 1063.0
20260902130939 21 180 0.0 0.0 0.00 0.00 0.00 72 1063.0
20260902130833 21 247 12.9 0.0 0.00 0.00 0.00 72 1063.0
20260902130727 21 247 6.4 0.0 0.00 0.00 0.00 72 1063.0
20260902130622 21 270 0.0 0.0 0.00 0.00 0.00 72 1063.0
20260902130516 21 270 4.8 0.0 0.00 0.00 0.00 72 1063.0
20260902130410 21 225 0.0 0.0 0.00 0.00 0.00 72 1062.9
20260902130305 21 247 6.4 0.0 0.00 0.00 0.00 72 1062.9
20260902130144 21 247 8.0 0.0 0.00 0.00 0.00 72 1062.9
20260902130023 21 247 3.2 0.0 0.00 0.00 0.00 71 1063.0
20260902125904 21 180 8.0 0.0 0.00 0.00 0.00 71 1062.9
20260902125758 21 247 0.0 0.0 0.00 0.00 0.00 70 1063.0
20260902125653 21 270 4.8 0.0 0.00 0.00 0.00 70 1063.0
20260902125546 21 225 3.2 0.0 0.00 0.00 0.00 70 1063.0
20260902125433 21 270 16.1 0.0 0.00 0.00 0.00 69 1063.0
20260902125321 21 202 8.0 0.0 0.00 0.00 0.00 68 1062.9
20260902125215 21 180 12.9 0.0 0.00 0.00 0.00 68 1062.9
20260902125111 21 270 0.0 0.0 0.00 0.00 0.00 68 1063.0
20260902125005 21 247 6.4 0.0 0.00 0.00 0.00 68 1062.9
20260902124853 21 180 9.7 0.0 0.00 0.00 0.00 68 1062.9
20260902124746 21 225 4.8 0.0 0.00 0.00 0.00 68 1063.0
20260902124634 21 247 4.8 0.0 0.00 0.00 0.00 68 1062.9
20260902124529 21 270 6.4 0.0 0.00 0.00 0.00 67 1063.0
20260902124408 21 270 0.0 0.0 0.00 0.00 0.00 67 1062.9
20260902124304 21 270 8.0 0.0 0.00 0.00 0.00 67 1063.0
20260902124157 21 247 9.7 0.0 0.00 0.00 0.00 67 1063.0
20260902124044 21 225 9.7 0.0 0.00 0.00 0.00 67 1063.0
20260902123934 21 247 8.0 0.0 0.00 0.00 0.00 67 1063.0
20260902123827 21 225 9.7 0.0 0.00 0.00 0.00 67 1063.0
20260902123659 21 225 4.8 0.0 0.00 0.00 0.00 67 1062.9
20260902123546 21 270 3.2 0.0 0.00 0.00 0.00 66 1062.9
20260902123425 21 270 16.1 0.0 0.00 0.00 0.00 66 1063.0
20260902123305 21 247 0.0 0.0 0.00 0.00 0.00 67 1062.9
20260902123201 21 270 0.0 0.0 0.00 0.00 0.00 67 1063.0
20260902123055 21 225 4.8 0.0 0.00 0.00 0.00 67 1062.9
20260902122942 21 247 4.8 0.0 0.00 0.00 0.00 68 1063.0
20260902122829 21 225 4.8 0.0 0.00 0.00 0.00 68 1063.0
20260902122715 21 180 9.7 0.0 0.00 0.00 0.00 68 1062.9
20260902122603 21 157 6.4 0.0 0.00 0.00 0.00 69 1063.0
20260902122452 21 202 4.8 0.0 0.00 0.00 0.00 69 1062.9
20260902122344 21 225 6.4 0.0 0.00 0.00 0.00 70 1062.9
20260902122232 20 247 8.0 0.0 0.00 0.00 0.00 71 1063.0
20260902122127 20 247 9.7 0.0 0.00 0.00 0.00 71 1063.0
20260902122014 20 247 0.0 0.0 0.00 0.00 0.00 71 1063.0
20260902121911 20 247 0.0 0.0 0.00 0.00 0.00 71 1063.0
20260902121805 20 270 6.4 0.0 0.00 0.00 0.00 72 1063.0
20260902121658 20 225 0.0 0.0 0.00 0.00 0.00 71 1063.0
20260902121553 20 202 3.2 0.0 0.00 0.00 0.00 71 1063.0
20260902121440 20 202 3.2 0.0 0.00 0.00 0.00 71 1063.0
20260902121335 20 202 4.8 0.0 0.00 0.00 0.00 71 1063.0
20260902121222 20 180 4.8 0.0 0.00 0.00 0.00 71 1063.0
20260902121108 20 202 6.4 0.0 0.00 0.00 0.00 71 1063.0
20260902120947 20 225 6.4 0.0 0.00 0.00 0.00 71 1063.0
20260902120827 20 225 6.4 0.0 0.00 0.00 0.00 72 1063.0
20260902120720 20 225 4.8 0.0 0.00 0.00 0.00 72 1062.9
20260902120606 20 202 0.0 0.0 0.00 0.00 0.00 72 1063.0
20260902120455 20 225 3.2 0.0 0.00 0.00 0.00 73 1062.9
20260902120347 20 225 6.4 0.0 0.00 0.00 0.00 73 1063.0
20260902120233 20 180 0.0 0.0 0.00 0.00 0.00 73 1062.9
20260902120119 20 180 3.2 0.0 0.00 0.00 0.00 73 1063.0
20260902120013 19 247 1.6 0.0 0.00 0.00 0.00 73 1063.0
20260902115859 19 270 6.4 0.0 0.00 0.00 0.00 73 1063.0
20260902115747 19 247 3.2 0.0 0.00 0.00 0.00 73 1063.0
20260902115632 19 270 4.8 0.0 0.00 0.00 0.00 73 1062.9
20260902115520 19 225 6.4 0.0 0.00 0.00 0.00 73 1062.9
20260902115406 19 270 1.6 0.0 0.00 0.00 0.00 73 1062.9
20260902115246 18 247 6.4 0.0 0.00 0.00 0.00 73 1062.9
20260902115141 18 225 4.8 0.0 0.00 0.00 0.00 73 1062.9
20260902115032 18 157 11.3 0.0 0.00 0.00 0.00 72 1063.0
20260902114918 19 247 0.0 0.0 0.00 0.00 0.00 72 1063.1
20260902114812 19 247 16.1 0.0 0.00 0.00 0.00 71 1063.1
20260902114702 19 270 3.2 0.0 0.00 0.00 0.00 71 1063.1
20260902114553 19 247 8.0 0.0 0.00 0.00 0.00 70 1063.1
20260902114441 19 270 4.8 0.0 0.00 0.00 0.00 70 1063.1
20260902114327 19 180 9.7 0.0 0.00 0.00 0.00 70 1063.1
20260902114214 20 270 9.7 0.0 0.00 0.00 0.00 70 1063.1
20260902114045 20 247 22.5 0.0 0.00 0.00 0.00 70 1063.1
20260902113932 20 270 12.9 0.0 0.00 0.00 0.00 69 1063.1
20260902113811 20 270 14.5 0.0 0.00 0.00 0.00 68 1063.1
20260902113649 20 270 20.9 0.0 0.00 0.00 0.00 67 1063.2
20260902113528 21 247 8.0 0.0 0.00 0.00 0.00 66 1063.1
20260902113407 21 292 22.5 0.0 0.00 0.00 0.00 67 1063.1
20260902113254 21 247 8.0 0.0 0.00 0.00 0.00 66 1063.1
20260902113137 21 270 22.5 0.0 0.00 0.00 0.00 66 1063.1
20260902113029 21 270 16.1 0.0 0.00 0.00 0.00 65 1063.2
20260902112913 21 270 3.2 0.0 0.00 0.00 0.00 64 1063.2
20260902112803 22 292 17.7 0.0 0.00 0.00 0.00 64 1063.2
20260902112655 22 315 9.7 0.0 0.00 0.00 0.00 63 1063.2
20260902112534 22 270 12.9 0.0 0.00 0.00 0.00 63 1063.2
20260902112421 22 270 11.3 0.0 0.00 0.00 0.00 63 1063.2
20260902112300 23 270 25.7 0.0 0.00 0.00 0.00 67 1063.2
20260902112140 23 292 14.5 0.0 0.00 0.00 0.00 67 1063.1
20260902112025 23 247 11.3 0.0 0.00 0.00 0.00 67 1063.2
20260902111856 23 270 11.3 0.0 0.00 0.00 0.00 67 1063.1
20260902111743 23 292 16.1 0.0 0.00 0.00 0.00 67 1063.1
20260902111614 22 270 4.8 0.0 0.00 0.00 0.00 67 1063.1
20260902111502 22 292 8.0 0.0 0.00 0.00 0.00 68 1063.2
20260902111350 22 247 0.0 0.0 0.00 0.00 0.00 68 1063.2
20260902111243 22 247 9.7 0.0 0.00 0.00 0.00 68 1063.1
20260902111122 22 247 12.9 0.0 0.00 0.00 0.00 69 1063.2
20260902111001 22 270 0.0 0.0 0.00 0.00 0.00 70 1063.2
20260902110848 22 270 6.4 0.0 0.00 0.00 0.00 69 1063.2
20260902110735 22 292 9.7 0.0 0.00 0.00 0.00 69 1063.2
20260902110630 22 270 6.4 0.0 0.00 0.00 0.00 69 1063.1
20260902110510 22 270 8.0 0.0 0.00 0.00 0.00 69 1063.2
20260902110406 22 270 0.0 0.0 0.00 0.00 0.00 68 1063.2
20260902110259 22 225 8.0 0.0 0.00 0.00 0.00 68 1063.2
20260902110153 22 315 12.9 0.0 0.00 0.00 0.00 68 1063.2
20260902110032 22 270 9.7 0.0 0.00 0.00 0.00 67 1063.1
20260902105910 23 270 17.7 0.0 0.00 0.00 0.00 67 1063.1
20260902105750 23 270 0.0 0.0 0.00 0.00 0.00 66 1063.1
20260902105638 23 270 6.4 0.0 0.00 0.00 0.00 66 1063.1
20260902105534 23 225 11.3 0.0 0.00 0.00 0.00 66 1063.1
20260902105426 23 292 19.3 0.0 0.00 0.00 0.00 65 1063.1
20260902105314 23 202 16.1 0.0 0.00 0.00 0.00 66 1063.1
20260902105200 23 247 6.4 0.0 0.00 0.00 0.00 66 1063.1
20260902105041 23 292 4.8 0.0 0.00 0.00 0.00 66 1063.1
20260902104933 23 292 0.0 0.0 0.00 0.00 0.00 66 1063.0
20260902104814 23 0 9.7 0.0 0.00 0.00 0.00 67 1063.1
20260902104708 22 292 0.0 0.0 0.00 0.00 0.00 66 1063.1
20260902104547 22 270 0.0 0.0 0.00 0.00 0.00 66 1063.1
20260902104426 22 270 6.4 0.0 0.00 0.00 0.00 66 1063.1
20260902104313 22 337 6.4 0.0 0.00 0.00 0.00 67 1063.1
20260902104151 22 225 6.4 0.0 0.00 0.00 0.00 67 1063.1
20260902104041 22 247 9.7 0.0 0.00 0.00 0.00 67 1063.1
20260902103914 22 202 8.0 0.0 0.00 0.00 0.00 67 1063.2
20260902103806 22 247 9.7 0.0 0.00 0.00 0.00 66 1063.2
20260902103645 22 270 11.3 0.0 0.00 0.00 0.00 67 1063.2
20260902103534 22 315 4.8 0.0 0.00 0.00 0.00 67 1063.1
20260902103418 22 247 9.7 0.0 0.00 0.00 0.00 67 1063.2
20260902103252 22 270 4.8 0.0 0.00 0.00 0.00 68 1063.2
20260902103133 22 292 14.5 0.0 0.00 0.00 0.00 68 1063.2
20260902103025 22 270 9.7 0.0 0.00 0.00 0.00 67 1063.2
20260902102905 22 292 8.0 0.0 0.00 0.00 0.00 67 1063.2
20260902102755 22 270 8.0 0.0 0.00 0.00 0.00 67 1063.1
20260902102648 22 270 11.3 0.0 0.00 0.00 0.00 67 1063.1
20260902102541 22 270 12.9 0.0 0.00 0.00 0.00 68 1063.2
20260902102422 22 247 16.1 0.0 0.00 0.00 0.00 69 1063.2
20260902102317 22 270 0.0 0.0 0.00 0.00 0.00 69 1063.2
20260902102212 22 270 0.0 0.0 0.00 0.00 0.00 69 1063.1
20260902102107 22 292 8.0 0.0 0.00 0.00 0.00 69 1063.1
20260902102002 22 247 0.0 0.0 0.00 0.00 0.00 69 1063.2
20260902101857 22 270 0.0 0.0 0.00 0.00 0.00 68 1063.1
20260902101751 22 247 6.4 0.0 0.00 0.00 0.00 68 1063.1
20260902101632 22 292 8.0 0.0 0.00 0.00 0.00 68 1063.1
20260902101527 22 247 0.0 0.0 0.00 0.00 0.00 67 1063.1
20260902101423 22 292 8.0 0.0 0.00 0.00 0.00 67 1063.1
20260902101318 22 247 4.8 0.0 0.00 0.00 0.00 67 1063.1
20260902101212 22 225 16.1 0.0 0.00 0.00 0.00 67 1063.0
20260902101107 22 247 9.7 0.0 0.00 0.00 0.00 67 1063.1
20260902100932 22 247 4.8 0.0 0.00 0.00 0.00 66 1063.0
20260902100827 23 292 11.3 0.0 0.00 0.00 0.00 65 1063.0
20260902100719 23 225 11.3 0.0 0.00 0.00 0.00 65 1063.0
20260902100559 23 157 14.5 0.0 0.00 0.00 0.00 65 1063.0
20260902100456 23 270 0.0 0.0 0.00 0.00 0.00 65 1063.0
20260902100348 23 247 3.2 0.0 0.00 0.00 0.00 65 1063.0
20260902100219 23 270 0.0 0.0 0.00 0.00 0.00 64 1063.0
20260902100107 23 292 9.7 0.0 0.00 0.00 0.00 64 1063.0
20260902095955 23 202 0.0 0.0 0.00 0.05 0.00 64 1063.0
20260902095848 23 247 9.7 0.0 0.00 0.05 0.00 63 1063.0
20260902095726 23 180 9.7 0.0 0.00 0.05 0.00 63 1063.0
20260902095613 24 225 9.7 0.0 0.00 0.05 0.00 62 1063.0
20260902095503 24 225 20.9 0.0 0.00 0.05 0.00 62 1063.0
20260902095355 25 225 9.7 0.0 0.00 0.05 0.00 62 1062.9
20260902095234 25 247 17.7 0.0 0.00 0.05 0.00 61 1063.0
20260902095123 25 292 9.7 0.0 0.00 0.05 0.00 60 1063.0
20260902095016 25 247 6.4 0.0 0.00 0.05 0.00 59 1062.9
20260902094855 25 270 6.4 0.0 0.00 0.05 0.00 58 1063.0
20260902094742 26 247 6.4 0.0 0.00 0.05 0.00 57 1062.9
20260902094629 26 225 6.4 0.0 0.00 0.05 0.00 57 1062.9
20260902094524 26 292 11.3 0.0 0.00 0.05 0.00 56 1062.9
20260902094412 26 225 0.0 0.0 0.00 0.05 0.00 56 1062.9
20260902094306 26 247 9.7 0.0 0.00 0.05 0.00 56 1062.9
20260902094154 27 292 9.7 0.0 0.00 0.05 0.00 55 1062.9
20260902094049 27 247 6.4 0.0 0.00 0.05 0.00 56 1062.9
20260902093942 26 247 0.0 0.0 0.00 0.05 0.00 57 1062.9
20260902093820 26 247 6.4 0.0 0.00 0.05 0.00 57 1062.8
20260902093652 26 225 4.8 0.0 0.00 0.05 0.00 56 1062.8
20260902093530 26 247 9.7 0.0 0.00 0.05 0.00 56 1062.9
20260902093409 27 157 8.0 0.0 0.00 0.05 0.00 56 1062.9
20260902093257 26 247 11.3 0.0 0.00 0.05 0.00 56 1062.9
20260902093152 26 270 11.3 0.0 0.00 0.05 0.00 56 1062.9
20260902093030 26 225 0.0 0.0 0.00 0.05 0.00 56 1062.9
20260902092917 26 247 8.0 0.0 0.00 0.05 0.00 57 1062.9
20260902092755 26 270 11.3 0.0 0.00 0.05 0.00 57 1062.8
20260902092635 26 180 14.5 0.0 0.00 0.05 0.00 58 1062.9
20260902092522 26 225 4.8 0.0 0.00 0.05 0.00 59 1062.9
20260902092415 26 270 0.0 0.0 0.00 0.05 0.00 59 1062.9
20260902092305 26 270 6.4 0.0 0.00 0.05 0.00 59 1062.9
20260902092150 26 270 9.7 0.0 0.00 0.05 0.00 58 1062.9
20260902092039 26 225 8.0 0.0 0.00 0.05 0.00 58 1062.9
20260902091934 26 225 9.7 0.0 0.00 0.05 0.00 59 1062.9
20260902091819 26 225 9.7 0.0 0.00 0.05 0.00 59 1062.9
20260902091705 26 202 9.7 0.0 0.00 0.05 0.00 59 1062.9
20260902091545 26 247 6.4 0.0 0.00 0.05 0.00 59 1062.9
20260902091442 26 202 9.7 0.0 0.00 0.05 0.00 59 1062.9
20260902091334 26 270 9.7 0.0 0.00 0.05 0.00 61 1062.9
20260902091224 25 247 0.0 0.0 0.00 0.05 0.00 61 1062.9
20260902091117 25 180 6.4 0.0 0.00 0.05 0.00 60 1062.9
20260902091003 25 225 9.7 0.0 0.00 0.05 0.00 61 1062.9
20260902090843 25 247 9.7 0.0 0.00 0.05 0.00 61 1062.9
20260902090729 25 225 11.3 0.0 0.00 0.05 0.00 61 1062.9
20260902090602 25 225 8.0 0.0 0.00 0.05 0.00 61 1062.9
20260902090448 25 180 11.3 0.0 0.00 0.05 0.00 61 1062.8
20260902090342 25 202 6.4 0.0 0.00 0.05 0.00 60 1062.9
20260902090231 25 157 17.7 0.0 0.00 0.05 0.00 59 1062.9
20260902090117 25 225 9.7 0.0 0.00 0.05 0.00 60 1062.9
20260902090012 25 202 3.2 0.0 0.00 0.05 0.00 60 1062.9
20260902085859 25 292 8.0 0.0 0.00 0.20 0.00 59 1062.9
20260902085746 26 157 8.0 0.0 0.00 0.20 0.00 59 1062.9
20260902085641 26 247 4.8 0.0 0.00 0.20 0.00 59 1062.9
20260902085536 26 202 16.1 0.0 0.00 0.20 0.00 59 1062.9
20260902085431 26 270 11.3 0.0 0.00 0.20 0.00 59 1063.0
20260902085325 26 247 0.0 0.0 0.00 0.20 0.00 59 1062.9
20260902085220 26 247 9.7 0.0 0.00 0.20 0.00 59 1062.9
20260902085109 26 157 0.0 0.0 0.00 0.20 0.00 59 1062.9
20260902085001 25 292 0.0 0.0 0.00 0.20 0.00 59 1062.9
20260902084849 25 247 0.0 0.0 0.00 0.20 0.00 59 1062.9
20260902084735 25 225 0.0 0.0 0.00 0.20 0.00 59 1063.0
20260902084623 25 180 11.3 0.0 0.00 0.20 0.00 59 1062.9
20260902084510 25 180 8.0 0.0 0.00 0.20 0.00 58 1062.9
20260902084347 26 225 16.1 0.0 0.00 0.20 0.00 59 1062.9
20260902084235 25 270 0.0 0.0 0.00 0.20 0.00 59 1062.8
20260902084131 25 247 9.7 0.0 0.00 0.20 0.00 59 1062.8
20260902084017 25 247 9.7 0.0 0.00 0.20 0.00 59 1062.9
20260902083854 25 247 0.0 0.0 0.00 0.20 0.00 60 1062.9
20260902083742 25 270 6.4 0.0 0.00 0.20 0.00 60 1062.8
20260902083621 25 225 8.0 0.0 0.00 0.20 0.00 60 1062.8
20260902083508 25 225 3.2 0.0 0.00 0.20 0.00 60 1062.8
20260902083346 25 202 9.7 0.0 0.00 0.20 0.00 60 1062.8
20260902083236 25 292 8.0 0.0 0.00 0.20 0.00 60 1062.7
20260902083129 25 157 8.0 0.0 0.00 0.20 0.00 60 1062.8
20260902083000 25 270 8.0 0.0 0.00 0.20 0.00 60 1062.8
20260902082850 25 202 17.7 0.0 0.00 0.20 0.00 60 1062.7
20260902082744 25 180 6.4 0.0 0.00 0.20 0.00 60 1062.7
20260902082638 25 157 8.0 0.0 0.00 0.20 0.00 60 1062.6
20260902082526 25 180 8.0 0.0 0.00 0.20 0.00 61 1062.6
20260902082413 25 180 11.3 0.0 0.00 0.20 0.00 62 1062.6
20260902082254 24 292 8.0 0.0 0.00 0.20 0.00 62 1062.6
20260902082134 24 225 0.0 0.0 0.00 0.20 0.00 62 1062.6
20260902082017 24 202 0.0 0.0 0.00 0.20 0.00 62 1062.5
20260902081904 24 202 6.4 0.0 0.00 0.20 0.00 62 1062.6
20260902081751 23 270 3.2 0.0 0.00 0.20 0.00 63 1062.5
20260902081638 23 157 8.0 0.0 0.00 0.20 0.00 62 1062.5
20260902081532 23 270 4.8 0.0 0.00 0.20 0.00 62 1062.5
20260902081411 23 225 8.0 0.0 0.00 0.20 0.00 62 1062.5
20260902081258 23 202 14.5 0.0 0.00 0.20 0.00 62 1062.5
20260902081146 23 202 12.9 0.0 0.00 0.20 0.00 62 1062.4
20260902081032 23 270 0.0 0.0 0.00 0.20 0.00 62 1062.4
20260902080919 23 202 9.7 0.0 0.00 0.20 0.00 62 1062.5
20260902080806 23 157 4.8 0.0 0.00 0.20 0.00 63 1062.5
20260902080652 23 180 8.0 0.0 0.00 0.20 0.00 62 1062.5
20260902080540 23 180 8.0 0.0 0.00 0.20 0.00 62 1062.5
20260902080418 23 180 6.4 0.0 0.00 0.20 0.00 63 1062.5
20260902080306 23 180 9.7 0.0 0.00 0.20 0.00 64 1062.5
20260902080201 23 180 8.0 0.0 0.00 0.20 0.00 65 1062.5
20260902080056 23 202 0.0 0.0 0.00 0.20 0.00 65 1062.5
20260902075950 23 225 4.8 0.0 0.00 0.20 0.00 64 1062.4
20260902075831 23 247 6.4 0.0 0.00 0.20 0.00 64 1062.5
20260902075715 23 225 6.4 0.0 0.00 0.20 0.00 65 1062.5
20260902075554 22 180 3.2 0.0 0.00 0.20 0.00 65 1062.5
20260902075433 22 202 0.0 0.0 0.00 0.20 0.00 66 1062.4
20260902075312 22 270 8.0 0.0 0.00 0.20 0.00 65 1062.5
20260902075150 22 202 8.0 0.0 0.00 0.20 0.00 66 1062.5
20260902075038 22 180 9.7 0.0 0.00 0.20 0.00 66 1062.4
20260902074933 22 247 9.7 0.0 0.00 0.20 0.00 66 1062.5
20260902074828 22 270 11.3 0.0 0.00 0.20 0.00 66 1062.5
20260902074717 22 202 9.7 0.0 0.00 0.20 0.00 66 1062.5
20260902074611 22 180 12.9 0.0 0.00 0.20 0.00 66 1062.5
20260902074504 22 247 6.4 0.0 0.00 0.20 0.00 66 1062.5
20260902074350 22 202 9.7 0.0 0.00 0.20 0.00 66 1062.6
20260902074229 22 247 6.4 0.0 0.00 0.20 0.00 66 1062.5
20260902074118 22 202 9.7 0.0 0.00 0.20 0.00 66 1062.5
20260902074004 22 202 11.3 0.0 0.00 0.20 0.00 66 1062.6
20260902073850 22 202 12.9 0.0 0.00 0.20 0.00 67 1062.5
20260902073729 22 202 0.0 0.0 0.00 0.20 0.00 67 1062.5
20260902073617 21 225 4.8 0.0 0.00 0.20 0.00 67 1062.5
20260902073512 22 225 4.8 0.0 0.00 0.20 0.00 67 1062.5
20260902073350 21 180 3.2 0.0 0.00 0.20 0.00 67 1062.5
20260902073214 21 225 3.2 0.0 0.00 0.20 0.00 68 1062.5
20260902073056 21 202 14.5 0.0 0.00 0.20 0.00 68 1062.5
20260902072950 21 202 9.7 0.0 0.00 0.20 0.00 67 1062.5
20260902072845 21 180 12.9 0.0 0.00 0.20 0.00 68 1062.4
20260902072739 21 247 4.8 0.0 0.00 0.20 0.00 69 1062.5
20260902072617 21 202 9.7 0.0 0.00 0.20 0.00 69 1062.4
20260902072459 21 202 0.0 0.0 0.00 0.20 0.00 70 1062.5
20260902072351 20 202 8.0 0.0 0.00 0.20 0.00 71 1062.4
20260902072222 20 180 6.4 0.0 0.00 0.20 0.00 72 1062.5
20260902072103 20 180 8.0 0.0 0.00 0.20 0.00 72 1062.5
20260902071955 20 180 3.2 0.0 0.00 0.20 0.00 73 1062.5
20260902071841 20 180 9.7 0.0 0.00 0.20 0.00 73 1062.5
20260902071727 20 202 11.3 0.0 0.00 0.20 0.00 72 1062.6
20260902071605 20 247 3.2 0.0 0.00 0.20 0.00 73 1062.5
20260902071452 19 180 0.0 0.0 0.00 0.20 0.00 74 1062.5
20260902071346 19 180 6.4 0.0 0.00 0.20 0.00 74 1062.6
20260902071225 19 270 8.0 0.0 0.00 0.20 0.00 74 1062.5
20260902071103 19 225 17.7 0.0 0.00 0.20 0.00 75 1062.5
20260902070934 18 180 4.8 0.0 0.00 0.20 0.00 77 1062.5
20260902070813 18 180 0.0 0.0 0.00 0.20 0.00 78 1062.5
20260902070655 18 180 0.0 0.0 0.00 0.20 0.00 78 1062.6
20260902070547 18 180 12.9 0.0 0.00 0.20 0.00 79 1062.6
20260902070433 17 202 16.1 0.0 0.00 0.20 0.00 79 1062.5
20260902070327 17 202 9.7 0.0 0.00 0.20 0.00 80 1062.5
20260902070213 17 202 11.3 0.0 0.00 0.20 0.00 80 1062.5
20260902065957 17 157 3.2 0.0 0.00 0.25 0.00 80 1062.5
20260902065842 17 225 6.4 0.0 0.00 0.25 0.00 80 1062.5
20260902065729 17 180 8.0 0.0 0.00 0.25 0.00 80 1062.6
20260902065615 17 202 1.6 0.0 0.00 0.25 0.00 80 1062.6
20260902065455 17 180 17.7 0.0 0.00 0.25 0.00 80 1062.6
20260902065342 17 180 0.0 0.0 0.00 0.25 0.00 80 1062.6
20260902065237 17 202 9.7 0.0 0.00 0.25 0.00 80 1062.6
20260902065132 17 202 0.0 0.0 0.00 0.25 0.00 80 1062.5
20260902065027 17 202 6.4 0.0 0.00 0.25 0.00 80 1062.5
20260902064907 17 202 8.0 0.0 0.00 0.25 0.00 79 1062.6
20260902064800 17 225 8.0 0.0 0.00 0.25 0.00 79 1062.5
20260902064647 17 225 6.4 0.0 0.00 0.25 0.00 79 1062.5
20260902064533 17 202 4.8 0.0 0.00 0.25 0.00 79 1062.6
20260902064426 17 202 0.0 0.0 0.00 0.25 0.00 79 1062.5
20260902064305 17 180 6.4 0.0 0.00 0.25 0.00 79 1062.5
20260902064151 17 157 6.4 0.0 0.00 0.25 0.00 79 1062.6
20260902064037 17 202 6.4 0.0 0.00 0.25 0.00 79 1062.5
20260902063932 17 202 8.0 0.0 0.00 0.25 0.00 80 1062.5
20260902063819 17 247 6.4 0.0 0.00 0.25 0.00 80 1062.6
20260902063712 17 202 9.7 0.0 0.00 0.25 0.00 80 1062.6
20260902063600 17 225 1.6 0.0 0.00 0.25 0.00 80 1062.6
20260902063439 17 180 6.4 0.0 0.00 0.25 0.00 80 1062.6
20260902063318 17 180 4.8 0.0 0.00 0.25 0.00 81 1062.5
20260902063156 17 202 8.0 0.0 0.00 0.25 0.00 80 1062.6
20260902063037 17 202 14.5 0.0 0.00 0.25 0.00 81 1062.5
20260902062922 17 180 9.7 0.0 0.00 0.25 0.00 81 1062.6
20260902062809 17 157 6.4 0.0 0.00 0.25 0.00 82 1062.5
20260902062647 17 225 8.0 0.0 0.00 0.25 0.00 82 1062.5
20260902062535 17 157 6.4 0.0 0.00 0.25 0.00 83 1062.6
20260902062422 17 180 4.8 0.0 0.00 0.25 0.00 84 1062.6
20260902062305 17 202 4.8 0.0 0.00 0.25 0.00 85 1062.6
20260902062155 17 157 1.6 0.0 0.00 0.25 0.00 86 1062.6
20260902062049 17 225 11.3 0.0 0.00 0.25 0.00 87 1062.6
20260902061935 16 202 9.7 0.0 0.00 0.25 0.00 88 1062.6
20260902061824 16 157 6.4 0.0 0.00 0.25 0.00 88 1062.6
20260902061717 16 180 9.7 0.0 0.00 0.25 0.00 89 1062.7
20260902061604 16 157 0.0 0.0 0.00 0.25 0.00 90 1062.6
20260902061450 16 180 0.0 0.0 0.00 0.25 0.00 90 1062.6
20260902061329 16 180 11.3 0.0 0.00 0.25 0.00 90 1062.7
20260902061222 16 180 3.2 0.0 0.00 0.25 0.00 91 1062.6
20260902061116 16 202 0.0 0.0 0.00 0.25 0.00 90 1062.6
20260902061003 15 180 9.7 0.0 0.00 0.25 0.00 91 1062.6
20260902060857 15 135 4.8 0.0 0.00 0.25 0.00 91 1062.7
20260902060751 15 180 0.0 0.0 0.00 0.25 0.00 91 1062.6
20260902060629 15 202 0.0 0.0 0.00 0.25 0.00 91 1062.6
20260902060526 14 202 0.0 0.0 0.00 0.25 0.00 91 1062.6
20260902060419 14 180 0.0 0.0 0.00 0.25 0.00 91 1062.7
20260902060306 14 202 0.0 0.0 0.00 0.25 0.00 91 1062.7
20260902060201 14 202 0.0 0.0 0.00 0.25 0.00 91 1062.7
20260902060056 14 202 4.8 0.0 0.00 0.25 0.00 91 1062.6
20260902055951 14 180 4.8 0.0 0.00 0.25 0.00 91 1062.6
20260902055821 13 180 0.0 0.0 0.00 0.25 0.00 91 1062.6
20260902055707 13 180 8.0 0.0 0.00 0.25 0.00 91 1062.6
20260902055547 13 202 0.0 0.0 0.00 0.25 0.00 91 1062.6
20260902055434 13 180 0.0 0.0 0.00 0.25 0.00 91 1062.7
20260902055321 13 180 3.2 0.0 0.00 0.25 0.00 91 1062.7
20260902055207 13 157 8.0 0.0 0.00 0.25 0.00 91 1062.7
20260902055054 13 180 8.0 0.0 0.00 0.25 0.00 91 1062.7
20260902054943 13 180 4.8 0.0 0.00 0.25 0.00 91 1062.7
20260902054837 13 180 6.4 0.0 0.00 0.25 0.00 91 1062.7
20260902054731 13 180 3.2 0.0 0.00 0.25 0.00 91 1062.7
20260902054609 13 180 0.0 0.0 0.00 0.25 0.00 91 1062.6
20260902054457 13 180 0.0 0.0 0.00 0.25 0.00 91 1062.7
20260902054344 13 202 0.0 0.0 0.00 0.25 0.00 91 1062.7
20260902054231 13 202 0.0 0.0 0.00 0.25 0.00 91 1062.6
20260902054124 13 202 0.0 0.0 0.00 0.25 0.00 91 1062.7
20260902054004 13 202 0.0 0.0 0.00 0.25 0.00 91 1062.7
20260902053846 13 202 0.0 0.0 0.00 0.25 0.00 91 1062.6
20260902053729 13 202 0.0 0.0 0.00 0.25 0.00 91 1062.7
20260902053609 13 202 0.0 0.0 0.00 0.25 0.00 91 1062.6
20260902053456 13 202 0.0 0.0 0.00 0.25 0.00 91 1062.6
20260902053350 13 202 3.2 0.0 0.00 0.25 0.00 92 1062.6
20260902053229 13 180 0.0 0.0 0.00 0.25 0.00 91 1062.6
20260902053117 13 157 0.0 0.0 0.00 0.25 0.00 91 1062.6
20260902053004 13 180 0.0 0.0 0.00 0.25 0.00 91 1062.6
20260902052858 13 180 0.0 0.0 0.00 0.25 0.00 91 1062.7
20260902052747 13 180 0.0 0.0 0.00 0.25 0.00 91 1062.7
20260902052632 13 180 0.0 0.0 0.00 0.25 0.00 91 1062.6
20260902052510 13 180 0.0 0.0 0.00 0.25 0.00 91 1062.6
20260902052350 13 202 3.2 0.0 0.00 0.25 0.00 91 1062.7
20260902052236 13 180 8.0 0.0 0.00 0.25 0.00 91 1062.6
20260902052115 13 202 4.8 0.0 0.00 0.25 0.00 91 1062.6
20260902052002 13 180 0.0 0.0 0.00 0.25 0.00 91 1062.7
20260902051849 13 180 3.2 0.0 0.00 0.25 0.00 91 1062.6
20260902051727 13 157 8.0 0.0 0.00 0.25 0.00 91 1062.6
20260902051607 13 180 4.8 0.0 0.00 0.25 0.00 91 1062.7
20260902051503 13 202 4.8 0.0 0.00 0.25 0.00 91 1062.7
20260902051357 13 180 3.2 0.0 0.00 0.25 0.00 91 1062.7
20260902051251 13 180 3.2 0.0 0.00 0.25 0.00 91 1062.6
20260902051138 13 180 1.6 0.0 0.00 0.25 0.00 91 1062.6
20260902051033 13 180 4.8 0.0 0.00 0.25 0.00 91 1062.7
20260902050920 13 157 0.0 0.0 0.00 0.25 0.00 91 1062.6
20260902050806 13 180 0.0 0.0 0.00 0.25 0.00 91 1062.6
20260902050653 13 180 0.0 0.0 0.00 0.25 0.00 91 1062.6
20260902050541 13 157 0.0 0.0 0.00 0.25 0.00 91 1062.7
20260902050435 13 202 9.7 0.0 0.00 0.25 0.00 91 1062.7
20260902050322 13 157 6.4 0.0 0.00 0.25 0.00 91 1062.6
20260902050201 13 180 6.4 0.0 0.00 0.25 0.00 91 1062.6
20260902050041 13 157 0.0 0.0 0.00 0.25 0.00 91 1062.6
20260902045935 13 157 0.0 0.0 0.00 0.30 0.00 91 1062.6
20260902045813 13 157 6.4 0.0 0.00 0.30 0.00 91 1062.7
20260902045701 13 180 6.4 0.0 0.00 0.30 0.00 91 1062.7
20260902045541 13 202 4.8 0.0 0.00 0.30 0.00 91 1062.6
20260902045437 13 202 6.4 0.0 0.00 0.30 0.00 91 1062.6
20260902045329 13 157 3.2 0.0 0.00 0.30 0.00 91 1062.7
20260902045208 13 202 9.7 0.0 0.00 0.30 0.00 91 1062.6
20260902045041 13 180 0.0 0.0 0.00 0.30 0.00 91 1062.6
20260902044933 13 157 0.0 0.0 0.00 0.30 0.00 91 1062.5
20260902044821 13 180 0.0 0.0 0.00 0.30 0.00 91 1062.6
20260902044715 13 180 0.0 0.0 0.00 0.30 0.00 91 1062.6
20260902044602 13 180 0.0 0.0 0.00 0.30 0.00 91 1062.5
20260902044441 13 202 0.0 0.0 0.00 0.30 0.00 91 1062.5
20260902044328 13 157 0.0 0.0 0.00 0.30 0.00 91 1062.7
20260902044223 13 157 0.0 0.0 0.00 0.30 0.00 91 1062.6
20260902044119 13 157 0.0 0.0 0.00 0.30 0.00 91 1062.6
20260902044013 13 157 0.0 0.0 0.00 0.30 0.00 91 1062.6
20260902043908 13 180 0.0 0.0 0.00 0.30 0.00 91 1062.6
20260902043757 13 180 3.2 0.0 0.00 0.30 0.00 91 1062.7
20260902043650 13 180 0.0 0.0 0.00 0.30 0.00 91 1062.6
20260902043537 13 180 6.4 0.0 0.00 0.30 0.00 91 1062.7
20260902043426 13 180 0.0 0.0 0.00 0.30 0.00 91 1062.7
20260902043318 13 157 6.4 0.0 0.00 0.30 0.00 91 1062.7
20260902043157 13 180 6.4 0.0 0.00 0.30 0.00 91 1062.6
20260902043038 13 180 6.4 0.0 0.00 0.30 0.00 91 1062.6
20260902042930 13 180 0.0 0.0 0.00 0.30 0.00 91 1062.8
20260902042754 13 180 8.0 0.0 0.00 0.30 0.00 91 1062.7
20260902042641 13 157 6.4 0.0 0.00 0.30 0.00 91 1062.7
20260902042519 13 157 0.0 0.0 0.00 0.30 0.00 92 1062.7
20260902042406 13 157 0.0 0.0 0.00 0.30 0.00 91 1062.7
20260902042244 13 157 0.0 0.0 0.00 0.30 0.00 92 1062.7
20260902042126 13 157 0.0 0.0 0.00 0.30 0.00 92 1062.7
20260902042019 13 157 9.7 0.0 0.00 0.30 0.00 92 1062.7
20260902041857 13 202 0.0 0.0 0.00 0.30 0.00 91 1062.7
20260902041736 13 202 0.0 0.0 0.00 0.30 0.00 92 1062.8
20260902041623 13 180 8.0 0.0 0.00 0.30 0.00 92 1062.7
20260902041518 13 180 6.4 0.0 0.00 0.30 0.00 92 1062.7
20260902041356 13 157 9.7 0.0 0.00 0.30 0.00 92 1062.7
20260902041246 13 135 0.0 0.0 0.00 0.30 0.00 92 1062.7
20260902041138 13 202 3.2 0.0 0.00 0.30 0.00 92 1062.7
20260902041026 13 157 9.7 0.0 0.00 0.30 0.00 92 1062.7
20260902040921 13 202 3.2 0.0 0.00 0.30 0.00 92 1062.8
20260902040815 13 202 6.4 0.0 0.00 0.30 0.00 92 1062.8
20260902040703 13 157 6.4 0.0 0.00 0.30 0.00 92 1062.8
20260902040551 13 157 0.0 0.0 0.00 0.30 0.00 92 1062.8
20260902040424 13 157 6.4 0.0 0.00 0.30 0.00 92 1062.8
20260902040310 13 202 9.7 0.0 0.00 0.30 0.00 92 1062.9
20260902040156 13 180 8.0 0.0 0.00 0.30 0.00 92 1062.8
20260902040041 13 202 6.4 0.0 0.00 0.30 0.00 92 1062.8
20260902035935 13 202 9.7 0.0 0.00 0.30 0.00 92 1062.8
20260902035815 13 157 8.0 0.0 0.00 0.30 0.00 92 1062.8
20260902035710 13 202 1.6 0.0 0.00 0.30 0.00 92 1062.9
20260902035605 13 157 0.0 0.0 0.00 0.30 0.00 92 1062.8
20260902035500 13 157 4.8 0.0 0.00 0.30 0.00 92 1062.9
20260902035346 13 180 9.7 0.0 0.00 0.30 0.00 92 1062.9
20260902035233 13 180 6.4 0.0 0.00 0.30 0.00 92 1062.9
20260902035128 13 202 0.0 0.0 0.00 0.30 0.00 92 1062.9
20260902035014 13 157 0.0 0.0 0.00 0.30 0.00 92 1062.9
20260902034853 13 157 6.4 0.0 0.00 0.30 0.00 92 1062.9
20260902034741 13 202 0.0 0.0 0.00 0.30 0.00 92 1062.9
20260902034635 13 157 3.2 0.0 0.00 0.30 0.00 92 1062.9
20260902034515 13 157 0.0 0.0 0.00 0.30 0.00 92 1062.9
20260902034409 13 180 0.0 0.0 0.00 0.30 0.00 92 1062.9
20260902034256 13 202 8.0 0.0 0.00 0.30 0.00 92 1062.9
20260902034143 13 180 4.8 0.0 0.00 0.30 0.00 92 1062.9
20260902034032 13 225 6.4 0.0 0.00 0.30 0.00 92 1063.0
20260902033925 13 180 6.4 0.0 0.00 0.30 0.00 92 1062.9
20260902033812 13 180 0.0 0.0 0.00 0.30 0.00 92 1063.0
20260902033708 13 180 0.0 0.0 0.00 0.30 0.00 92 1063.0
20260902033602 13 202 3.2 0.0 0.00 0.30 0.00 92 1062.9
20260902033448 13 225 4.8 0.0 0.00 0.30 0.00 92 1063.0
20260902033336 13 180 0.0 0.0 0.00 0.30 0.00 92 1063.0
20260902033230 13 202 6.4 0.0 0.00 0.30 0.00 92 1063.0
20260902033119 13 180 3.2 0.0 0.00 0.30 0.00 92 1063.0
20260902033013 13 202 6.4 0.0 0.00 0.30 0.00 92 1063.0
20260902032907 13 202 0.0 0.0 0.00 0.30 0.00 92 1063.0
20260902032755 13 157 6.4 0.0 0.00 0.30 0.00 92 1063.0
20260902032642 13 225 6.4 0.0 0.00 0.30 0.00 92 1063.0
20260902032536 13 202 9.7 0.0 0.00 0.30 0.00 92 1063.0
20260902032423 13 247 4.8 0.0 0.00 0.30 0.00 92 1063.0
20260902032310 13 202 9.7 0.0 0.00 0.30 0.00 92 1063.0
20260902032149 13 202 9.7 0.0 0.00 0.30 0.00 92 1063.0
20260902032044 13 180 8.0 0.0 0.00 0.30 0.00 92 1063.1
20260902031931 13 157 0.0 0.0 0.00 0.30 0.00 92 1063.1
20260902031825 13 202 4.8 0.0 0.00 0.30 0.00 92 1063.1
20260902031712 13 180 0.0 0.0 0.00 0.30 0.00 92 1063.1
20260902031559 13 180 8.0 0.0 0.00 0.30 0.00 92 1063.1
20260902031447 13 157 0.0 0.0 0.00 0.30 0.00 92 1063.1
20260902031332 13 180 0.0 0.0 0.00 0.30 0.00 92 1063.1
20260902031211 13 157 6.4 0.0 0.00 0.30 0.00 92 1063.1
20260902031101 13 202 6.4 0.0 0.00 0.30 0.00 92 1063.1
20260902030954 13 225 3.2 0.0 0.00 0.30 0.00 92 1063.1
20260902030841 13 202 0.0 0.0 0.00 0.30 0.00 92 1063.1
20260902030737 13 180 0.0 0.0 0.00 0.30 0.00 92 1063.1
20260902030631 13 225 9.7 0.0 0.00 0.30 0.00 92 1063.2
20260902030526 13 202 8.0 0.0 0.00 0.30 0.00 92 1063.2
20260902030421 13 157 8.0 0.0 0.00 0.30 0.00 92 1063.2
20260902030316 13 202 0.0 0.0 0.00 0.30 0.00 92 1063.2
20260902030211 13 202 9.7 0.0 0.00 0.30 0.00 92 1063.2
20260902030057 13 202 0.0 0.0 0.00 0.30 0.00 92 1063.2
20260902025946 13 202 6.4 0.0 0.00 0.30 0.00 92 1063.2
20260902025831 13 180 1.6 0.0 0.00 0.30 0.00 92 1063.2
20260902025718 13 157 8.0 0.0 0.00 0.30 0.00 92 1063.2
20260902025613 13 180 8.0 0.0 0.00 0.30 0.00 92 1063.3
20260902025500 13 180 0.0 0.0 0.00 0.30 0.00 92 1063.3
20260902025341 13 202 0.0 0.0 0.00 0.30 0.00 92 1063.2
20260902025234 13 180 0.0 0.0 0.00 0.30 0.00 92 1063.2
20260902025121 13 157 6.4 0.0 0.00 0.30 0.00 92 1063.2
20260902025017 13 202 6.4 0.0 0.00 0.30 0.00 92 1063.2
20260902024902 13 180 8.0 0.0 0.00 0.30 0.00 92 1063.2
20260902024742 13 202 6.4 0.0 0.00 0.30 0.00 92 1063.3
20260902024636 13 157 0.0 0.0 0.00 0.30 0.00 92 1063.2
20260902024523 13 157 8.0 0.0 0.00 0.30 0.00 92 1063.2
20260902024419 13 180 0.0 0.0 0.00 0.30 0.00 92 1063.2
20260902024313 13 180 0.0 0.0 0.00 0.30 0.00 92 1063.2
20260902024208 13 157 0.0 0.0 0.00 0.30 0.00 92 1063.2
20260902024057 13 202 0.0 0.0 0.00 0.30 0.00 92 1063.3
20260902023950 13 180 0.0 0.0 0.00 0.30 0.00 92 1063.3
20260902023837 13 180 0.0 0.0 0.00 0.30 0.00 92 1063.3
20260902023724 13 180 0.0 0.0 0.00 0.30 0.00 92 1063.2
20260902023611 13 157 0.0 0.0 0.00 0.30 0.00 92 1063.2
20260902023459 13 157 0.0 0.0 0.00 0.30 0.00 92 1063.2
20260902023344 13 180 4.8 0.0 0.00 0.30 0.00 92 1063.2
20260902023233 13 180 0.0 0.0 0.00 0.30 0.00 92 1063.2
20260902023127 13 180 0.0 0.0 0.00 0.30 0.00 92 1063.3
20260902023020 13 180 0.0 0.0 0.00 0.30 0.00 92 1063.2
20260902022901 13 180 0.0 0.0 0.00 0.30 0.00 92 1063.2
20260902022755 13 180 0.0 0.0 0.00 0.30 0.00 92 1063.2
20260902022650 13 180 0.0 0.0 0.00 0.30 0.00 92 1063.2
20260902022530 13 180 3.2 0.0 0.00 0.30 0.00 92 1063.2
20260902022424 13 180 0.0 0.0 0.00 0.30 0.00 92 1063.2
20260902022311 13 180 4.8 0.0 0.00 0.30 0.00 92 1063.3
20260902022206 13 180 0.0 0.0 0.00 0.30 0.00 92 1063.2
20260902022101 13 180 0.0 0.0 0.00 0.30 0.00 92 1063.2
20260902021940 13 202 3.2 0.0 0.00 0.30 0.00 92 1063.2
20260902021837 13 202 0.0 0.0 0.00 0.30 0.00 92 1063.2
20260902021729 13 202 0.0 0.0 0.00 0.30 0.00 92 1063.3
20260902021616 13 202 0.0 0.0 0.00 0.30 0.00 92 1063.3
20260902021454 13 202 0.0 0.0 0.00 0.30 0.00 92 1063.3
20260902021334 13 225 0.0 0.0 0.00 0.30 0.00 92 1063.3
20260902021220 13 180 6.4 0.0 0.00 0.30 0.00 92 1063.3
20260902021100 13 180 0.0 0.0 0.00 0.30 0.00 92 1063.3
20260902020946 13 202 0.0 0.0 0.00 0.30 0.00 92 1063.4
20260902020827 13 180 0.0 0.0 0.00 0.30 0.00 92 1063.3
20260902020712 13 202 0.0 0.0 0.00 0.30 0.00 92 1063.3
20260902020550 13 202 0.0 0.0 0.00 0.30 0.00 92 1063.3
20260902020430 13 202 0.0 0.0 0.00 0.30 0.00 92 1063.3
20260902020309 13 180 6.4 0.0 0.00 0.30 0.00 92 1063.3
20260902020155 13 202 0.0 0.0 0.00 0.30 0.00 92 1063.3
20260902020034 13 202 0.0 0.0 0.00 0.30 0.00 92 1063.2
20260902015921 13 202 3.2 0.0 0.00 0.30 0.00 92 1063.3
20260902015808 13 202 6.4 0.0 0.00 0.30 0.00 92 1063.2
20260902015646 13 180 0.0 0.0 0.00 0.30 0.00 92 1063.2
20260902015528 13 180 9.7 0.0 0.00 0.30 0.00 92 1063.2
20260902015422 13 202 0.0 0.0 0.00 0.30 0.00 92 1063.3
20260902015315 13 180 0.0 0.0 0.00 0.30 0.00 92 1063.3
20260902015156 13 180 0.0 0.0 0.00 0.30 0.00 92 1063.3
20260902015049 13 180 0.0 0.0 0.00 0.30 0.00 92 1063.3
20260902014930 13 202 0.0 0.0 0.00 0.30 0.00 92 1063.3
20260902014825 13 225 0.0 0.0 0.00 0.30 0.00 92 1063.3
20260902014720 13 180 0.0 0.0 0.00 0.30 0.00 92 1063.3
20260902014612 13 202 3.2 0.0 0.00 0.30 0.00 92 1063.2
20260902014453 13 180 3.2 0.0 0.00 0.30 0.00 92 1063.3
20260902014346 13 180 4.8 0.0 0.00 0.30 0.00 92 1063.3
20260902014234 13 225 0.0 0.0 0.00 0.30 0.00 92 1063.3
20260902014112 13 180 0.0 0.0 0.00 0.30 0.00 92 1063.3
20260902013959 13 180 0.0 0.0 0.00 0.30 0.00 92 1063.2
20260902013846 13 202 6.4 0.0 0.00 0.30 0.00 92 1063.3
20260902013734 13 225 4.8 0.0 0.00 0.30 0.00 92 1063.3
20260902013612 13 202 0.0 0.0 0.00 0.30 0.00 92 1063.3
20260902013458 13 202 0.0 0.0 0.00 0.30 0.00 92 1063.3
20260902013345 13 202 0.0 0.0 0.00 0.30 0.00 92 1063.3
20260902013232 13 202 0.0 0.0 0.00 0.30 0.00 92 1063.3
20260902013120 13 202 0.0 0.0 0.00 0.30 0.00 92 1063.3
20260902013015 13 202 0.0 0.0 0.00 0.30 0.00 92 1063.3
20260902012908 13 180 0.0 0.0 0.00 0.30 0.00 92 1063.1
20260902012748 13 202 0.0 0.0 0.00 0.30 0.00 92 1063.2
20260902012627 13 180 0.0 0.0 0.00 0.30 0.00 92 1063.3
20260902012513 13 180 0.0 0.0 0.00 0.30 0.00 92 1063.3
20260902012346 13 180 0.0 0.0 0.00 0.30 0.00 92 1063.2
20260902012239 13 180 0.0 0.0 0.00 0.30 0.00 92 1063.3
20260902012126 13 180 0.0 0.0 0.00 0.30 0.00 91 1063.3
20260902012005 13 202 0.0 0.0 0.00 0.30 0.00 92 1063.3
20260902011852 13 202 0.0 0.0 0.00 0.30 0.00 91 1063.3
20260902011730 13 180 3.2 0.0 0.00 0.30 0.00 91 1063.3
20260902011610 13 202 0.0 0.0 0.00 0.30 0.00 91 1063.3
20260902011505 13 202 3.2 0.0 0.00 0.30 0.00 91 1063.3
20260902011359 13 180 6.4 0.0 0.00 0.30 0.00 91 1063.3
20260902011246 13 180 0.0 0.0 0.00 0.30 0.00 91 1063.3
20260902011126 13 180 0.0 0.0 0.00 0.30 0.00 91 1063.3
20260902011006 13 180 0.0 0.0 0.00 0.30 0.00 91 1063.3
20260902010858 13 202 8.0 0.0 0.00 0.30 0.00 91 1063.3
20260902010745 13 202 0.0 0.0 0.00 0.30 0.00 91 1063.3
20260902010616 13 202 4.8 0.0 0.00 0.30 0.00 91 1063.4
20260902010447 13 202 0.0 0.0 0.00 0.30 0.00 91 1063.3
20260902010325 13 202 3.2 0.0 0.00 0.30 0.00 91 1063.4
20260902005954 12 202 0.0 0.0 0.00 0.30 0.00 91 1063.4
20260902005840 12 202 0.0 0.0 0.00 0.30 0.00 91 1063.4
20260902005721 12 225 0.0 0.0 0.00 0.30 0.00 91 1063.4
20260902005614 12 180 0.0 0.0 0.00 0.30 0.00 91 1063.4
20260902005454 12 202 0.0 0.0 0.00 0.30 0.00 91 1063.4
20260902005340 12 202 0.0 0.0 0.00 0.30 0.00 91 1063.4
20260902005210 12 180 0.0 0.0 0.00 0.30 0.00 91 1063.4
20260902005044 12 180 0.0 0.0 0.00 0.30 0.00 91 1063.4
20260902004936 12 202 0.0 0.0 0.00 0.30 0.00 91 1063.4
20260902004807 12 180 0.0 0.0 0.00 0.30 0.00 91 1063.4
20260902004653 12 180 0.0 0.0 0.00 0.30 0.00 91 1063.4
20260902004541 12 202 6.4 0.0 0.00 0.30 0.00 91 1063.4
20260902004427 12 180 0.0 0.0 0.00 0.30 0.00 91 1063.3
20260902004258 12 180 0.0 0.0 0.00 0.30 0.00 90 1063.3
20260902004152 12 202 0.0 0.0 0.00 0.30 0.00 90 1063.4
20260902004030 12 225 0.0 0.0 0.00 0.30 0.00 90 1063.4
20260902003915 12 225 0.0 0.0 0.00 0.30 0.00 90 1063.4
20260902003801 12 225 0.0 0.0 0.00 0.30 0.00 90 1063.4
20260902003655 12 225 0.0 0.0 0.00 0.30 0.00 90 1063.5
20260902003542 12 225 0.0 0.0 0.00 0.30 0.00 90 1063.4
20260902003437 12 225 0.0 0.0 0.00 0.30 0.00 90 1063.4
20260902003320 12 225 0.0 0.0 0.00 0.30 0.00 90 1063.4
20260902003209 12 225 0.0 0.0 0.00 0.30 0.00 90 1063.5
20260902003100 12 225 0.0 0.0 0.00 0.30 0.00 90 1063.4
20260902002946 12 225 0.0 0.0 0.00 0.30 0.00 90 1063.5
20260902002834 12 225 0.0 0.0 0.00 0.30 0.00 90 1063.4
20260902002725 12 225 0.0 0.0 0.00 0.30 0.00 90 1063.4
20260902002606 12 225 0.0 0.0 0.00 0.30 0.00 90 1063.4
20260902002458 12 247 0.0 0.0 0.00 0.30 0.00 90 1063.4
20260902002353 12 247 0.0 0.0 0.00 0.30 0.00 90 1063.5
20260902002246 12 247 0.0 0.0 0.00 0.30 0.00 90 1063.4
20260902002131 12 247 0.0 0.0 0.00 0.30 0.00 90 1063.4
20260902002025 12 225 0.0 0.0 0.00 0.30 0.00 90 1063.5
20260902001910 12 202 0.0 0.0 0.00 0.30 0.00 90 1063.4
20260902001749 12 202 0.0 0.0 0.00 0.30 0.00 90 1063.4
20260902001626 12 202 0.0 0.0 0.00 0.30 0.00 90 1063.4
20260902001507 12 202 0.0 0.0 0.00 0.30 0.00 90 1063.4
20260902001403 12 202 0.0 0.0 0.00 0.30 0.00 90 1063.4
20260902001256 12 180 0.0 0.0 0.00 0.30 0.00 90 1063.4
20260902001145 12 180 0.0 0.0 0.00 0.30 0.00 90 1063.4
20260902001038 12 180 0.0 0.0 0.00 0.30 0.00 90 1063.4
20260902000920 12 202 0.0 0.0 0.00 0.30 0.00 90 1063.4
20260902000812 12 180 0.0 0.0 0.00 0.30 0.00 90 1063.4
20260902000643 12 180 0.0 0.0 0.00 0.30 0.00 90 1063.4
20260902000524 12 202 0.0 0.0 0.00 0.30 0.00 90 1063.5
20260902000416 13 202 0.0 0.0 0.00 0.30 0.00 90 1063.4
20260902000304 13 202 0.0 0.0 0.00 0.30 0.00 90 1063.4
20260902000147 13 202 0.0 0.0 0.00 0.30 0.00 90 1063.4
20260902000030 13 180 0.0 0.0 0.00 0.30 0.00 90 1063.5
20260901235921 13 180 0.0 0.0 0.00 0.30 0.00 90 1063.5
20260901235806 13 180 0.0 0.0 0.00 0.30 0.00 90 1063.5
20260901235636 13 180 0.0 0.0 0.00 0.30 0.00 90 1063.5
20260901235522 13 180 0.0 0.0 0.00 0.30 0.00 90 1063.4
20260901235416 13 180 0.0 0.0 0.00 0.30 0.00 90 1063.5
20260901235309 13 202 6.4 0.0 0.00 0.30 0.00 90 1063.5
20260901235157 13 180 0.0 0.0 0.00 0.30 0.00 90 1063.5
20260901235043 13 180 3.2 0.0 0.00 0.30 0.00 90 1063.4
20260901234935 13 202 0.0 0.0 0.00 0.30 0.00 90 1063.5
20260901234813 13 202 0.0 0.0 0.00 0.30 0.00 90 1063.5
20260901234706 13 180 0.0 0.0 0.00 0.30 0.00 89 1063.5
20260901234536 13 202 0.0 0.0 0.00 0.30 0.00 89 1063.5
20260901234422 13 180 0.0 0.0 0.00 0.30 0.00 89 1063.5
20260901234316 13 202 0.0 0.0 0.00 0.30 0.00 89 1063.5
20260901234155 13 202 0.0 0.0 0.00 0.30 0.00 89 1063.4
20260901234043 13 202 0.0 0.0 0.00 0.30 0.00 89 1063.4
20260901233929 13 202 0.0 0.0 0.00 0.30 0.00 89 1063.4
20260901233817 13 202 0.0 0.0 0.00 0.30 0.00 89 1063.4
20260901233712 13 202 0.0 0.0 0.00 0.30 0.00 89 1063.3
20260901233607 13 202 0.0 0.0 0.00 0.30 0.00 89 1063.4
20260901233459 13 202 3.2 0.0 0.00 0.30 0.00 89 1063.4
20260901233339 13 202 8.0 0.0 0.00 0.30 0.00 89 1063.4
20260901233226 13 202 0.0 0.0 0.00 0.30 0.00 89 1063.5
20260901233113 13 202 0.0 0.0 0.00 0.30 0.00 89 1063.4
20260901233001 13 202 0.0 0.0 0.00 0.30 0.00 89 1063.5
20260901232847 13 180 0.0 0.0 0.00 0.30 0.00 89 1063.5
20260901232742 13 180 0.0 0.0 0.00 0.30 0.00 89 1063.6
20260901232628 13 180 0.0 0.0 0.00 0.30 0.00 89 1063.5
20260901232510 13 180 0.0 0.0 0.00 0.30 0.00 89 1063.5
20260901232354 13 180 0.0 0.0 0.00 0.30 0.00 89 1063.5
20260901232240 13 180 8.0 0.0 0.00 0.30 0.00 89 1063.5
20260901232122 13 157 0.0 0.0 0.00 0.30 0.00 89 1063.5
20260901232016 13 157 4.8 0.0 0.00 0.30 0.00 89 1063.5
20260901231902 13 157 6.4 0.0 0.00 0.30 0.00 88 1063.5
20260901231759 13 157 6.4 0.0 0.00 0.30 0.00 88 1063.5
20260901231653 13 180 0.0 0.0 0.00 0.30 0.00 89 1063.5
20260901231533 13 157 0.0 0.0 0.00 0.30 0.00 88 1063.4
20260901231410 13 180 0.0 0.0 0.00 0.30 0.00 88 1063.5
20260901231250 13 180 0.0 0.0 0.00 0.30 0.00 88 1063.6
20260901231118 13 180 0.0 0.0 0.00 0.30 0.00 88 1063.6
20260901231013 13 180 0.0 0.0 0.00 0.30 0.00 88 1063.6
20260901230852 13 180 0.0 0.0 0.00 0.30 0.00 88 1063.6
20260901230731 14 180 0.0 0.0 0.00 0.30 0.00 88 1063.6
20260901230626 14 180 0.0 0.0 0.00 0.30 0.00 88 1063.5
20260901230520 14 180 0.0 0.0 0.00 0.30 0.00 88 1063.5
20260901230407 14 202 0.0 0.0 0.00 0.30 0.00 88 1063.6
20260901230238 14 225 0.0 0.0 0.00 0.30 0.00 88 1063.7
20260901230126 14 202 3.2 0.0 0.00 0.30 0.00 88 1063.7
20260901230011 14 180 0.0 0.0 0.00 0.30 0.00 88 1063.7
20260901225858 14 180 0.0 0.0 0.00 0.36 0.00 88 1063.7
20260901225746 14 202 0.0 0.0 0.00 0.36 0.00 88 1063.7
20260901225624 14 202 0.0 0.0 0.00 0.36 0.00 88 1063.6
20260901225513 14 202 9.7 0.0 0.00 0.36 0.00 88 1063.7
20260901225358 14 180 9.7 0.0 0.00 0.36 0.00 88 1063.7
20260901225245 14 225 0.0 0.0 0.00 0.36 0.00 88 1063.7
20260901225139 14 180 0.0 0.0 0.00 0.36 0.00 88 1063.7
20260901225027 14 202 6.4 0.0 0.00 0.36 0.00 88 1063.9
20260901224916 14 202 0.0 0.0 0.00 0.36 0.00 88 1063.8
20260901224809 15 202 0.0 0.0 0.00 0.36 0.00 88 1063.8
20260901224655 15 180 0.0 0.0 0.00 0.36 0.00 88 1063.8
20260901224544 15 202 0.0 0.0 0.00 0.36 0.00 88 1063.8
20260901224437 15 247 0.0 0.0 0.00 0.36 0.00 88 1063.8
20260901224316 15 202 0.0 0.0 0.00 0.36 0.00 88 1063.8
20260901224205 15 202 0.0 0.0 0.00 0.36 0.00 88 1063.8
20260901224058 15 202 3.2 0.0 0.00 0.36 0.00 88 1063.8
20260901223945 15 202 1.6 0.0 0.00 0.36 0.00 88 1063.8
20260901223823 15 270 0.0 0.0 0.00 0.36 0.00 88 1063.8
20260901223711 15 247 0.0 0.0 0.00 0.36 0.00 88 1063.9
20260901223549 15 202 0.0 0.0 0.00 0.36 0.00 88 1063.9
20260901223427 15 202 0.0 0.0 0.00 0.36 0.00 88 1063.9
20260901223257 15 225 0.0 0.0 0.00 0.36 0.00 88 1064.0
20260901223147 15 247 9.7 0.0 0.00 0.36 0.00 88 1063.9
20260901223040 15 225 8.0 0.0 0.00 0.36 0.00 88 1063.9
20260901222927 15 225 0.0 0.0 0.00 0.36 0.00 88 1063.9
20260901222813 15 180 0.0 0.0 0.00 0.36 0.00 88 1063.8
20260901222652 15 225 0.0 0.0 0.00 0.36 0.00 88 1063.9
20260901222533 15 270 0.0 0.0 0.00 0.36 0.00 88 1063.8
20260901222429 15 247 6.4 0.0 0.00 0.36 0.00 88 1063.9
20260901222324 15 202 8.0 0.0 0.00 0.36 0.00 87 1063.9
20260901222216 15 225 9.7 0.0 0.00 0.36 0.00 87 1063.9
20260901222104 15 225 4.8 0.0 0.00 0.36 0.00 87 1063.9
20260901221951 15 225 8.0 0.0 0.00 0.36 0.00 87 1063.9
20260901221846 15 225 1.6 0.0 0.00 0.36 0.00 87 1063.9
20260901221740 15 225 6.4 0.0 0.00 0.36 0.00 87 1063.9
20260901221629 15 225 0.0 0.0 0.00 0.36 0.00 87 1064.0
20260901221514 15 270 0.0 0.0 0.00 0.36 0.00 87 1064.0
20260901221354 15 225 9.7 0.0 0.00 0.36 0.00 87 1063.9
20260901221247 15 225 0.0 0.0 0.00 0.36 0.00 87 1063.9
20260901221127 15 225 0.0 0.0 0.00 0.36 0.00 87 1063.9
20260901221005 15 247 0.0 0.0 0.00 0.36 0.00 87 1063.9
20260901220844 15 225 0.0 0.0 0.00 0.36 0.00 87 1063.9
20260901220731 15 225 0.0 0.0 0.00 0.36 0.00 87 1064.0
20260901220602 15 247 0.0 0.0 0.00 0.36 0.00 87 1064.0
20260901220448 15 247 0.0 0.0 0.00 0.36 0.00 87 1064.0
20260901220336 15 270 4.8 0.0 0.00 0.36 0.00 87 1064.0
20260901220230 15 247 0.0 0.0 0.00 0.36 0.00 87 1064.1
20260901220101 15 270 8.0 0.0 0.00 0.36 0.00 87 1064.1
20260901215948 15 270 6.4 0.0 0.00 0.36 0.00 87 1064.1
20260901215829 15 247 0.0 0.0 0.00 0.36 0.00 87 1064.1
20260901215714 15 247 0.0 0.0 0.00 0.36 0.00 87 1064.1
20260901215608 15 225 0.0 0.0 0.00 0.36 0.00 87 1064.1
20260901215458 15 247 0.0 0.0 0.00 0.36 0.00 87 1064.1
20260901215349 15 270 0.0 0.0 0.00 0.36 0.00 87 1064.1
20260901215231 15 292 0.0 0.0 0.00 0.36 0.00 87 1064.2
20260901215126 15 270 8.0 0.0 0.00 0.36 0.00 87 1064.1
20260901215018 15 270 8.0 0.0 0.00 0.36 0.00 87 1064.1
20260901214858 15 247 0.0 0.0 0.00 0.36 0.00 87 1064.1
20260901214753 15 247 8.0 0.0 0.00 0.36 0.00 87 1064.2
20260901214641 15 270 9.7 0.0 0.00 0.36 0.00 87 1064.2
20260901214537 15 270 6.4 0.0 0.00 0.36 0.00 87 1064.1
20260901214432 15 247 4.8 0.0 0.00 0.36 0.00 87 1064.2
20260901214327 15 225 4.8 0.0 0.00 0.36 0.00 87 1064.2
20260901214219 15 247 9.7 0.0 0.00 0.36 0.00 87 1064.3
20260901214059 15 270 4.8 0.0 0.00 0.36 0.00 87 1064.2
20260901213946 15 292 0.0 0.0 0.00 0.36 0.00 87 1064.3
20260901213832 15 270 3.2 0.0 0.00 0.36 0.00 87 1064.3
20260901213713 15 270 8.0 0.0 0.00 0.36 0.00 87 1064.3
20260901213605 15 270 11.3 0.0 0.00 0.36 0.00 87 1064.2
20260901213454 15 292 9.7 0.0 0.00 0.36 0.00 87 1064.2
20260901213348 15 247 9.7 0.0 0.00 0.36 0.00 87 1064.2
20260901213243 15 270 6.4 0.0 0.00 0.36 0.00 87 1064.2
20260901213130 15 225 4.8 0.0 0.00 0.36 0.00 87 1064.1
20260901213009 15 202 6.4 0.0 0.00 0.36 0.00 87 1064.2
20260901212855 15 292 6.4 0.0 0.00 0.36 0.00 87 1064.2
20260901212728 15 247 9.7 0.0 0.00 0.36 0.00 87 1064.2
20260901212621 15 247 6.4 0.0 0.00 0.36 0.00 87 1064.2
20260901212507 15 270 0.0 0.0 0.00 0.36 0.00 87 1064.2
20260901212354 15 270 4.8 0.0 0.00 0.36 0.00 87 1064.2
20260901212242 15 225 16.1 0.0 0.00 0.36 0.00 87 1064.3
20260901212129 15 270 6.4 0.0 0.00 0.36 0.00 87 1064.2
20260901212016 15 247 0.0 0.0 0.00 0.36 0.00 87 1064.2
20260901211910 15 270 0.0 0.0 0.00 0.36 0.00 87 1064.3
20260901211759 15 247 9.7 0.0 0.00 0.36 0.00 87 1064.2
20260901211652 15 247 11.3 0.0 0.00 0.36 0.00 87 1064.2
20260901211531 15 270 0.0 0.0 0.00 0.36 0.00 87 1064.2
20260901211410 15 225 8.0 0.0 0.00 0.36 0.00 87 1064.3
20260901211258 15 270 9.7 0.0 0.00 0.36 0.00 87 1064.2
20260901211153 15 247 8.0 0.0 0.00 0.36 0.00 87 1064.2
20260901211047 15 202 3.2 0.0 0.00 0.36 0.00 87 1064.2
20260901210925 15 247 8.0 0.0 0.00 0.36 0.00 86 1064.2
20260901210813 15 247 8.0 0.0 0.00 0.36 0.00 86 1064.3
20260901210702 15 247 0.0 0.0 0.00 0.36 0.00 86 1064.2
20260901210556 15 270 4.8 0.0 0.00 0.36 0.00 86 1064.3
20260901210449 15 225 8.0 0.0 0.00 0.36 0.00 86 1064.3
20260901210337 15 270 4.8 0.0 0.00 0.36 0.00 86 1064.3
20260901210231 15 270 6.4 0.0 0.00 0.36 0.00 86 1064.3
20260901210118 15 247 9.7 0.0 0.00 0.36 0.00 86 1064.3
20260901210013 15 270 0.0 0.0 0.00 0.36 0.00 86 1064.3
20260901205859 15 270 6.4 0.0 0.00 0.36 0.00 86 1064.2
20260901205739 15 270 0.0 0.0 0.00 0.36 0.00 86 1064.2
20260901205626 15 270 6.4 0.0 0.00 0.36 0.00 86 1064.2
20260901205514 15 270 9.7 0.0 0.00 0.36 0.00 86 1064.2
20260901205407 15 247 6.4 0.0 0.00 0.36 0.00 87 1064.2
20260901205246 15 225 3.2 0.0 0.00 0.36 0.00 87 1064.2
20260901205124 15 202 4.8 0.0 0.00 0.36 0.00 87 1064.2
20260901205004 15 270 6.4 0.0 0.00 0.36 0.00 87 1064.2
20260901204851 15 247 9.7 0.0 0.00 0.36 0.00 86 1064.2
20260901204745 15 270 0.0 0.0 0.00 0.36 0.00 86 1064.3
20260901204624 15 247 0.0 0.0 0.00 0.36 0.00 86 1064.2
20260901204503 15 270 6.4 0.0 0.00 0.36 0.00 86 1064.2
20260901204344 15 270 0.0 0.0 0.00 0.36 0.00 86 1064.3
20260901204229 15 247 8.0 0.0 0.00 0.36 0.00 86 1064.3
20260901204116 15 202 8.0 0.0 0.00 0.36 0.00 86 1064.2
20260901204011 15 270 4.8 0.0 0.00 0.36 0.00 86 1064.2
20260901203851 15 247 0.0 0.0 0.00 0.36 0.00 86 1064.2
20260901203737 15 270 0.0 0.0 0.00 0.36 0.00 86 1064.2
20260901203634 15 202 8.0 0.0 0.00 0.36 0.00 86 1064.1
20260901203526 15 180 0.0 0.0 0.00 0.36 0.00 86 1064.1
20260901203413 15 270 0.0 0.0 0.00 0.36 0.00 86 1064.1
20260901203308 15 270 0.0 0.0 0.00 0.36 0.00 87 1064.2
20260901203139 15 292 4.8 0.0 0.00 0.36 0.00 87 1064.2
20260901203026 15 270 6.4 0.0 0.00 0.36 0.00 87 1064.2
20260901202921 15 292 6.4 0.0 0.00 0.36 0.00 87 1064.1
20260901202808 15 292 4.8 0.0 0.00 0.36 0.00 87 1064.2
20260901202638 15 247 3.2 0.0 0.00 0.36 0.00 87 1064.2
20260901202525 15 270 0.0 0.0 0.00 0.36 0.00 87 1064.1
20260901202414 15 270 6.4 0.0 0.00 0.36 0.00 87 1064.2
20260901202306 15 247 3.2 0.0 0.00 0.36 0.00 87 1064.1
20260901202145 15 247 4.8 0.0 0.00 0.36 0.00 87 1064.1
20260901202018 15 247 0.0 0.0 0.00 0.36 0.00 87 1064.1
20260901201912 15 247 9.7 0.0 0.00 0.36 0.00 87 1064.1
20260901201807 15 270 0.0 0.0 0.00 0.36 0.00 87 1064.1
20260901201654 15 270 9.7 0.0 0.00 0.36 0.00 87 1064.1
20260901201548 15 292 3.2 0.0 0.00 0.36 0.00 87 1064.1
20260901201443 15 247 9.7 0.0 0.00 0.36 0.00 87 1064.1
20260901201322 15 270 0.0 0.0 0.00 0.36 0.00 87 1064.1
20260901201208 15 225 8.0 0.0 0.00 0.36 0.00 87 1064.1
20260901201047 15 247 0.0 0.0 0.00 0.36 0.00 86 1064.1
20260901200934 15 270 0.0 0.0 0.00 0.36 0.00 86 1064.1
20260901200814 15 247 0.0 0.0 0.00 0.36 0.00 86 1064.1
20260901200708 15 247 0.0 0.0 0.00 0.36 0.00 86 1064.1
20260901200547 15 247 0.0 0.0 0.00 0.36 0.00 86 1064.1
20260901200434 15 247 0.0 0.0 0.00 0.36 0.00 86 1064.0
20260901200321 15 270 0.0 0.0 0.00 0.36 0.00 86 1064.0
20260901200159 15 247 0.0 0.0 0.00 0.36 0.00 86 1064.0
20260901200046 15 247 0.0 0.0 0.00 0.36 0.00 86 1064.0
20260901195935 15 225 8.0 0.0 0.00 0.36 0.00 86 1064.0
20260901195829 15 247 0.0 0.0 0.00 0.36 0.00 86 1064.0
20260901195723 15 247 0.0 0.0 0.00 0.36 0.00 86 1064.0
20260901195610 15 247 0.0 0.0 0.00 0.36 0.00 86 1064.0
20260901195505 15 270 0.0 0.0 0.00 0.36 0.00 86 1063.9
20260901195354 15 247 6.4 0.0 0.00 0.36 0.00 86 1064.0
20260901195247 15 292 0.0 0.0 0.00 0.36 0.00 86 1064.0
20260901195134 15 270 6.4 0.0 0.00 0.36 0.00 86 1063.9
20260901195021 15 270 0.0 0.0 0.00 0.36 0.00 86 1063.9
20260901194859 15 247 3.2 0.0 0.00 0.36 0.00 85 1063.9
20260901194738 16 270 0.0 0.0 0.00 0.36 0.00 85 1063.9
20260901194630 16 270 0.0 0.0 0.00 0.36 0.00 85 1063.9
20260901194509 16 270 4.8 0.0 0.00 0.36 0.00 85 1064.0
20260901194356 16 270 3.2 0.0 0.00 0.36 0.00 85 1063.9
20260901194250 16 270 0.0 0.0 0.00 0.36 0.00 84 1064.0
20260901194136 16 270 0.0 0.0 0.00 0.36 0.00 84 1063.9
20260901194029 16 292 4.8 0.0 0.00 0.36 0.00 84 1064.0
20260901193853 16 247 6.4 0.0 0.00 0.36 0.00 84 1063.9
20260901193746 16 247 0.0 0.0 0.00 0.36 0.00 84 1064.0
20260901193625 16 270 0.0 0.0 0.00 0.36 0.00 84 1063.9
20260901193504 16 270 0.0 0.0 0.00 0.36 0.00 84 1063.9
20260901193335 16 292 0.0 0.0 0.00 0.36 0.00 84 1063.9
20260901193222 16 292 0.0 0.0 0.00 0.36 0.00 84 1063.9
20260901193116 16 270 3.2 0.0 0.00 0.36 0.00 83 1063.9
20260901193010 16 270 0.0 0.0 0.00 0.36 0.00 83 1063.9
20260901192841 16 270 0.0 0.0 0.00 0.36 0.00 83 1063.9
20260901192728 16 292 8.0 0.0 0.00 0.36 0.00 83 1063.9
20260901192614 16 247 8.0 0.0 0.00 0.36 0.00 83 1063.9
20260901192454 16 292 0.0 0.0 0.00 0.36 0.00 83 1063.9
20260901192348 16 270 6.4 0.0 0.00 0.36 0.00 83 1063.9
20260901192235 16 247 0.0 0.0 0.00 0.36 0.00 83 1063.9
20260901192130 16 270 4.8 0.0 0.00 0.36 0.00 82 1063.9
20260901192011 16 315 6.4 0.0 0.00 0.36 0.00 82 1063.9
20260901191906 16 337 0.0 0.0 0.00 0.36 0.00 82 1063.9
20260901191759 16 270 0.0 0.0 0.00 0.36 0.00 82 1063.9
20260901191638 16 337 8.0 0.0 0.00 0.36 0.00 82 1063.9
20260901191533 16 270 0.0 0.0 0.00 0.36 0.00 82 1063.9
20260901191421 16 270 0.0 0.0 0.00 0.36 0.00 82 1063.9
20260901191316 16 292 0.0 0.0 0.00 0.36 0.00 82 1063.9
20260901191201 16 247 0.0 0.0 0.00 0.36 0.00 82 1063.9
20260901191040 16 292 9.7 0.0 0.00 0.36 0.00 82 1063.9
20260901190919 16 270 0.0 0.0 0.00 0.36 0.00 82 1063.9
20260901190808 16 270 0.0 0.0 0.00 0.36 0.00 82 1063.9
20260901190701 16 247 4.8 0.0 0.00 0.36 0.00 81 1063.9
20260901190558 16 270 0.0 0.0 0.00 0.36 0.00 81 1063.9
20260901190451 16 270 3.2 0.0 0.00 0.36 0.00 81 1063.9
20260901190321 16 292 0.0 0.0 0.00 0.36 0.00 81 1063.9
20260901190208 16 270 0.0 0.0 0.00 0.36 0.00 81 1063.9
20260901190055 16 270 0.0 0.0 0.00 0.36 0.00 81 1063.9
20260901185951 16 270 4.8 0.0 0.00 0.46 0.00 80 1064.0
20260901185845 16 292 6.4 0.0 0.00 0.46 0.00 80 1063.9
20260901185733 16 270 9.7 0.0 0.00 0.46 0.00 80 1063.9
20260901185627 16 247 11.3 0.0 0.00 0.46 0.00 80 1063.9
20260901185514 16 270 4.8 0.0 0.00 0.46 0.00 80 1063.9
20260901185402 16 292 4.8 0.0 0.00 0.46 0.00 80 1063.9
20260901185257 16 292 3.2 0.0 0.00 0.46 0.00 80 1063.8
20260901185153 16 270 6.4 0.0 0.00 0.46 0.00 80 1063.9
20260901185046 17 270 4.8 0.0 0.00 0.46 0.00 80 1063.9
20260901184934 17 292 4.8 0.0 0.00 0.46 0.00 80 1063.8
20260901184828 17 270 8.0 0.0 0.00 0.46 0.00 79 1063.9
20260901184723 17 270 8.0 0.0 0.00 0.46 0.00 79 1063.9
20260901184616 17 270 4.8 0.0 0.00 0.46 0.00 79 1063.9
20260901184511 17 292 0.0 0.0 0.00 0.46 0.00 79 1063.9
20260901184405 17 270 4.8 0.0 0.00 0.46 0.00 78 1063.9
20260901184259 17 315 9.7 0.0 0.00 0.46 0.00 78 1063.9
20260901184152 17 315 8.0 0.0 0.00 0.46 0.00 78 1063.9
20260901184037 17 292 6.4 0.0 0.00 0.46 0.00 78 1063.9
20260901183915 17 270 0.0 0.0 0.00 0.46 0.00 78 1063.9
20260901183801 17 315 11.3 0.0 0.00 0.46 0.00 78 1063.9
20260901183654 17 292 0.0 0.0 0.00 0.46 0.00 78 1063.9
20260901183533 17 270 8.0 0.0 0.00 0.46 0.00 78 1063.9
20260901183411 17 292 9.7 0.0 0.00 0.46 0.00 78 1063.8
20260901183305 17 270 8.0 0.0 0.00 0.46 0.00 78 1063.8
20260901183159 17 270 6.4 0.0 0.00 0.46 0.00 78 1063.8
20260901183053 17 270 3.2 0.0 0.00 0.46 0.00 78 1063.8
20260901182948 17 270 6.4 0.0 0.00 0.46 0.00 78 1063.9
20260901182841 17 270 11.3 0.0 0.00 0.46 0.00 78 1063.8
20260901182736 17 292 11.3 0.0 0.00 0.46 0.00 78 1063.9
20260901182629 17 270 9.7 0.0 0.00 0.46 0.00 77 1063.9
20260901182516 17 202 4.8 0.0 0.00 0.46 0.00 77 1063.9
20260901182403 17 315 4.8 0.0 0.00 0.46 0.00 77 1063.9
20260901182250 17 270 12.9 0.0 0.00 0.46 0.00 77 1063.9
20260901182137 17 270 0.0 0.0 0.00 0.46 0.00 77 1063.8
20260901182032 17 270 8.0 0.0 0.00 0.46 0.00 76 1063.8
20260901181919 17 270 3.2 0.0 0.00 0.46 0.00 76 1063.8
20260901181806 17 247 4.8 0.0 0.00 0.46 0.00 76 1063.8
20260901181655 17 270 8.0 0.0 0.00 0.46 0.00 76 1063.8
20260901181548 17 292 8.0 0.0 0.00 0.46 0.00 75 1063.8
20260901181435 17 315 8.0 0.0 0.00 0.46 0.00 75 1063.8
20260901181329 17 315 0.0 0.0 0.00 0.46 0.00 75 1063.9
20260901181217 17 292 0.0 0.0 0.00 0.46 0.00 75 1063.8
20260901181114 17 270 0.0 0.0 0.00 0.46 0.00 75 1063.8
20260901181008 17 292 0.0 0.0 0.00 0.46 0.00 74 1063.8
20260901180853 17 292 0.0 0.0 0.00 0.46 0.00 74 1063.9
20260901180740 17 315 0.0 0.0 0.00 0.46 0.00 74 1063.8
20260901180628 17 315 0.0 0.0 0.00 0.46 0.00 74 1063.9
20260901180522 17 337 6.4 0.0 0.00 0.46 0.00 73 1063.8
20260901180401 17 270 8.0 0.0 0.00 0.46 0.00 73 1063.8
20260901180135 17 292 9.7 0.0 0.00 0.46 0.00 73 1063.8
20260901180030 17 292 6.4 0.0 0.00 0.46 0.00 73 1063.8
20260901175908 17 292 0.0 0.0 0.00 0.51 0.00 72 1063.8
20260901175747 17 315 1.6 0.0 0.00 0.51 0.00 73 1063.8
20260901175634 17 315 14.5 0.0 0.00 0.51 0.00 73 1063.8
20260901175520 17 270 14.5 0.0 0.00 0.51 0.00 72 1063.8
20260901175358 17 315 4.8 0.0 0.00 0.51 0.00 72 1063.7
20260901175251 17 315 9.7 0.0 0.00 0.51 0.00 72 1063.8
20260901175140 17 292 9.7 0.0 0.00 0.51 0.00 72 1063.7
20260901175033 17 292 3.2 0.0 0.00 0.51 0.00 73 1063.8
20260901174911 17 337 9.7 0.0 0.00 0.51 0.00 73 1063.8
20260901174806 17 315 0.0 0.0 0.00 0.51 0.00 73 1063.7
20260901174652 17 292 16.1 0.0 0.00 0.51 0.00 73 1063.7
20260901174530 18 315 0.0 0.0 0.00 0.51 0.00 72 1063.7
20260901174424 18 292 0.0 0.0 0.00 0.51 0.00 72 1063.8
20260901174311 18 247 8.0 0.0 0.00 0.51 0.00 72 1063.8
20260901174207 18 292 9.7 0.0 0.00 0.51 0.00 71 1063.7
20260901174100 18 292 9.7 0.0 0.00 0.51 0.00 71 1063.7
20260901173947 18 247 9.7 0.0 0.00 0.51 0.00 71 1063.7
20260901173833 18 292 9.7 0.0 0.00 0.51 0.00 71 1063.7
20260901173712 18 292 14.5 0.0 0.00 0.51 0.00 71 1063.7
20260901173558 18 270 11.3 0.0 0.00 0.51 0.00 72 1063.7
20260901173444 18 247 6.4 0.0 0.00 0.51 0.00 71 1063.7
20260901173333 18 315 0.0 0.0 0.00 0.51 0.00 71 1063.7
20260901173218 18 292 16.1 0.0 0.00 0.51 0.00 71 1063.7
20260901173105 18 270 12.9 0.0 0.00 0.51 0.00 71 1063.7
20260901173000 18 292 12.9 0.0 0.00 0.51 0.00 71 1063.7
20260901172839 18 292 6.4 0.0 0.00 0.51 0.00 71 1063.7
20260901172717 18 337 6.4 0.0 0.00 0.51 0.00 71 1063.7
20260901172604 18 180 6.4 0.0 0.00 0.51 0.00 71 1063.7
20260901172454 18 292 9.7 0.0 0.00 0.51 0.00 72 1063.7
20260901172346 18 292 0.0 0.0 0.00 0.51 0.00 72 1063.7
20260901172236 18 292 12.9 0.0 0.00 0.51 0.00 72 1063.7
20260901172128 18 270 9.7 0.0 0.00 0.51 0.00 73 1063.7
20260901172015 18 315 4.8 0.0 0.00 0.51 0.00 73 1063.7
20260901171856 18 202 8.0 0.0 0.00 0.51 0.00 73 1063.6
20260901171743 18 225 3.2 0.0 0.00 0.51 0.00 73 1063.6
20260901171637 18 292 9.7 0.0 0.00 0.51 0.00 73 1063.6
20260901171529 18 270 9.7 0.0 0.00 0.51 0.00 72 1063.6
20260901171415 18 292 16.1 0.0 0.00 0.51 0.00 72 1063.7
20260901171310 18 270 14.5 0.0 0.00 0.51 0.00 72 1063.6
20260901171134 18 292 20.9 0.0 0.00 0.51 0.00 72 1063.6
20260901171019 18 0 12.9 0.0 0.00 0.51 0.00 72 1063.6
20260901170858 18 0 0.0 0.0 0.00 0.51 0.00 71 1063.6
20260901170742 18 292 11.3 0.0 0.00 0.51 0.00 71 1063.6
20260901170628 18 247 8.0 0.0 0.00 0.51 0.00 71 1063.6
20260901170518 18 315 8.0 0.0 0.00 0.51 0.00 70 1063.5
20260901170410 18 292 9.7 0.0 0.00 0.51 0.00 70 1063.6
20260901170258 18 292 8.0 0.0 0.00 0.51 0.00 70 1063.6
20260901170153 18 270 0.0 0.0 0.00 0.51 0.00 69 1063.6
20260901170039 18 315 9.7 0.0 0.00 0.51 0.00 69 1063.6
20260901165926 18 292 8.0 0.0 0.00 0.84 0.00 69 1063.6
20260901165815 18 270 0.0 0.0 0.00 0.84 0.00 68 1063.6
20260901165708 19 270 9.7 0.0 0.00 0.84 0.00 68 1063.5
20260901165555 19 270 0.0 0.0 0.00 0.84 0.00 68 1063.7
20260901165441 19 315 6.4 0.0 0.00 0.84 0.00 68 1063.6
20260901165320 19 292 12.9 0.0 0.00 0.84 0.00 68 1063.5
20260901165207 19 315 12.9 0.0 0.00 0.84 0.00 68 1063.6
20260901165054 19 270 11.3 0.0 0.00 0.84 0.00 67 1063.6
20260901164949 19 315 6.4 0.0 0.00 0.84 0.00 67 1063.6
20260901164828 19 270 0.0 0.0 0.00 0.84 0.00 66 1063.5
20260901164715 19 292 11.3 0.0 0.00 0.84 0.00 66 1063.5
20260901164602 20 315 11.3 0.0 0.00 0.84 0.00 66 1063.5
20260901164456 20 292 6.4 0.0 0.00 0.84 0.00 66 1063.5
20260901164350 20 315 9.7 0.0 0.00 0.84 0.00 66 1063.5
20260901164238 20 315 8.0 0.0 0.00 0.84 0.00 66 1063.5
20260901164126 20 337 0.0 0.0 0.00 0.84 0.00 67 1063.6
20260901164019 20 315 0.0 0.0 0.00 0.84 0.00 67 1063.5
20260901163906 20 292 8.0 0.0 0.00 0.84 0.00 68 1063.5
20260901163753 20 0 0.0 0.0 0.00 0.84 0.00 67 1063.5
20260901163649 20 315 8.0 0.0 0.00 0.84 0.00 67 1063.6
20260901163545 20 270 9.7 0.0 0.00 0.84 0.00 67 1063.5
20260901163438 20 315 8.0 0.0 0.00 0.84 0.00 67 1063.5
20260901163317 20 315 16.1 0.0 0.00 0.84 0.00 67 1063.5
20260901163204 20 270 20.9 0.0 0.00 0.84 0.00 67 1063.5
20260901163051 20 337 8.0 0.0 0.00 0.84 0.00 67 1063.5
20260901162947 20 292 8.0 0.0 0.00 0.84 0.00 67 1063.5
20260901162840 20 270 19.3 0.0 0.00 0.84 0.00 66 1063.5
20260901162719 20 247 6.4 0.0 0.00 0.84 0.00 66 1063.4
20260901162558 19 202 0.0 0.0 0.00 0.84 0.00 67 1063.4
20260901162437 19 270 8.0 0.0 0.00 0.84 0.00 67 1063.4
20260901162324 19 247 3.2 0.0 0.00 0.84 0.00 66 1063.4
20260901162211 19 315 14.5 0.0 0.00 0.84 0.00 66 1063.5
20260901162107 19 315 6.4 0.0 0.00 0.84 0.00 65 1063.4
20260901162001 19 337 0.0 0.0 0.00 0.84 0.00 65 1063.4
20260901161856 19 270 9.7 0.0 0.00 0.84 0.00 64 1063.5
20260901161752 20 292 0.0 0.0 0.00 0.84 0.00 64 1063.5
20260901161646 20 292 6.4 0.0 0.00 0.84 0.00 64 1063.5
20260901161541 20 292 8.0 0.0 0.00 0.84 0.00 64 1063.5
20260901161436 20 292 6.4 0.0 0.00 0.84 0.00 64 1063.5
20260901161332 20 292 9.7 0.0 0.00 0.84 0.00 64 1063.4
20260901161225 20 315 11.3 0.0 0.00 0.84 0.00 64 1063.4
20260901161056 20 270 19.3 0.0 0.00 0.84 0.00 65 1063.5
20260901160943 20 0 6.4 0.0 0.00 0.84 0.00 66 1063.5
20260901160837 20 292 12.9 0.0 0.00 0.84 0.00 66 1063.5
20260901160730 20 292 12.9 0.0 0.00 0.84 0.00 65 1063.4
20260901160600 20 247 0.0 0.0 0.00 0.84 0.00 65 1063.4
20260901160447 20 270 11.3 0.0 0.00 0.84 0.00 64 1063.4
20260901160341 20 315 6.4 0.0 0.00 0.84 0.00 64 1063.5
20260901160213 20 292 19.3 0.0 0.00 0.84 0.00 64 1063.5
20260901160059 20 337 8.0 0.0 0.00 0.84 0.00 64 1063.5
20260901155954 20 315 0.0 0.0 0.00 0.89 0.00 63 1063.4
20260901155840 20 270 0.0 0.0 0.00 0.89 0.00 62 1063.5
20260901155711 20 315 11.3 0.0 0.00 0.89 0.00 62 1063.4
20260901155550 21 270 9.7 0.0 0.00 0.89 0.00 63 1063.4
20260901155430 21 292 17.7 0.0 0.00 0.89 0.00 63 1063.3
20260901155317 21 270 0.0 0.0 0.00 0.89 0.00 63 1063.3
20260901155154 20 315 8.0 0.0 0.00 0.89 0.00 63 1063.4
20260901155026 21 337 12.9 0.0 0.00 0.89 0.00 62 1063.4
20260901154924 20 270 8.0 0.0 0.00 0.89 0.00 62 1063.4
20260901154816 20 270 16.1 0.0 0.00 0.89 0.00 63 1063.4
20260901154712 20 292 11.3 0.0 0.00 0.89 0.00 63 1063.3
20260901154558 20 315 9.7 0.0 0.00 0.89 0.00 64 1063.4
20260901154444 20 270 9.7 0.0 0.00 0.89 0.00 63 1063.4
20260901154330 20 292 0.0 0.0 0.00 0.89 0.00 63 1063.4
20260901154153 21 337 0.0 0.0 0.00 0.89 0.00 63 1063.3
20260901154032 21 337 9.7 0.0 0.00 0.89 0.00 63 1063.3
20260901153919 21 270 0.0 0.0 0.00 0.89 0.00 63 1063.3
20260901153806 21 270 12.9 0.0 0.00 0.89 0.00 63 1063.4
20260901153653 21 292 11.3 0.0 0.00 0.89 0.00 62 1063.4
20260901153548 21 292 8.0 0.0 0.00 0.89 0.00 62 1063.3
20260901153427 21 315 14.5 0.0 0.00 0.89 0.00 62 1063.3
20260901153322 21 315 8.0 0.0 0.00 0.89 0.00 61 1063.4
20260901153217 21 292 17.7 0.0 0.00 0.89 0.00 62 1063.3
20260901153056 21 292 6.4 0.0 0.00 0.89 0.00 62 1063.3
20260901152950 21 270 8.0 0.0 0.00 0.89 0.00 61 1063.4
20260901152829 21 292 16.1 0.0 0.00 0.89 0.00 61 1063.2
20260901152702 21 270 14.5 0.0 0.00 0.89 0.00 61 1063.2
20260901152546 21 315 12.9 0.0 0.00 0.89 0.00 62 1063.3
20260901152417 21 337 0.0 0.0 0.00 0.89 0.00 62 1063.3
20260901152306 21 292 9.7 0.0 0.00 0.89 0.00 62 1063.3
20260901152159 21 292 3.2 0.0 0.00 0.89 0.00 61 1063.4
20260901152040 21 270 19.3 0.0 0.00 0.89 0.00 61 1063.3
20260901151933 21 0 9.7 0.0 0.00 0.89 0.00 60 1063.3
20260901151819 21 247 17.7 0.0 0.00 0.89 0.00 60 1063.3
20260901151700 21 292 22.5 0.0 0.00 0.89 0.00 60 1063.2
20260901151545 21 292 9.7 0.0 0.00 0.89 0.00 60 1063.2
20260901151425 21 247 20.9 0.0 0.00 0.89 0.00 60 1063.1
20260901151311 21 315 12.9 0.0 0.00 0.89 0.00 60 1063.1
20260901151150 21 292 14.5 0.0 0.00 0.89 0.00 60 1063.2
20260901151037 21 292 12.9 0.0 0.00 0.89 0.00 60 1063.1
20260901150923 21 247 6.4 0.0 0.00 0.89 0.00 61 1063.1
20260901150754 21 292 9.7 0.0 0.00 0.89 0.00 62 1063.1